Time,TemperatureF,DewpointF,PressureIn,WindDirection,WindDirectionDegrees,WindSpeedMPH,WindSpeedGustMPH,Humidity,HourlyPrecipIn,Conditions,Clouds,dailyrainin,SoftwareType,DateUTC
2013-07-06 00:00:00,68.5,67.0,30.15,SSW,207,0.0,0.0,95,0.00,,,0.07,Wunderground v.1.15,2013-07-06 04:00:00,
2013-07-06 00:58:00,67.2,66.0,30.15,NNE,19,0.0,0.0,96,0.00,,,0.58,Wunderground v.1.15,2013-07-06 04:58:00,
2013-07-06 01:00:00,67.2,66.0,30.15,NNE,19,0.0,0.0,96,0.00,,,0.58,Wunderground v.1.15,2013-07-06 05:00:00,
2013-07-06 01:03:00,67.2,66.0,30.15,SSE,161,0.0,2.0,96,0.00,,,0.58,Wunderground v.1.15,2013-07-06 05:03:00,
2013-07-06 01:04:00,67.2,66.0,30.15,SSW,193,0.0,2.0,96,0.00,,,0.58,Wunderground v.1.15,2013-07-06 05:04:00,
2013-07-06 01:09:00,67.1,65.9,30.15,SSW,193,0.0,2.0,96,0.00,,,0.58,Wunderground v.1.15,2013-07-06 05:09:00,
2013-07-06 01:13:00,67.2,66.0,30.15,SSW,193,0.0,1.0,96,0.00,,,0.58,Wunderground v.1.15,2013-07-06 05:13:00,
2013-07-06 01:15:00,67.3,66.1,30.14,SSW,192,0.0,1.0,96,0.00,,,0.58,Wunderground v.1.15,2013-07-06 05:15:00,
2013-07-06 01:17:00,67.3,66.1,30.15,SSW,192,0.0,1.0,96,0.00,,,0.58,Wunderground v.1.15,2013-07-06 05:17:00,
2013-07-06 01:18:00,67.3,66.1,30.15,SSW,192,0.0,1.0,96,0.00,,,0.58,Wunderground v.1.15,2013-07-06 05:18:00,
2013-07-06 01:19:00,67.3,66.1,30.15,SSW,192,0.0,1.0,96,0.00,,,0.58,Wunderground v.1.15,2013-07-06 05:19:00,
2013-07-06 01:20:00,67.3,66.1,30.14,SSW,192,0.0,0.0,96,0.00,,,0.58,Wunderground v.1.15,2013-07-06 05:20:00,
2013-07-06 01:21:00,67.2,65.7,30.14,SSW,192,0.0,0.0,95,0.00,,,0.58,Wunderground v.1.15,2013-07-06 05:21:00,
2013-07-06 01:22:00,67.2,65.7,30.14,SSW,192,0.0,0.0,95,0.00,,,0.58,Wunderground v.1.15,2013-07-06 05:22:00,
2013-07-06 01:23:00,67.2,65.7,30.14,SSW,192,0.0,0.0,95,0.00,,,0.58,Wunderground v.1.15,2013-07-06 05:23:00,
2013-07-06 01:24:00,67.2,65.7,30.14,SSW,192,0.0,0.0,95,0.00,,,0.58,Wunderground v.1.15,2013-07-06 05:24:00,
2013-07-06 01:25:00,67.2,65.7,30.14,SSW,192,0.0,0.0,95,0.00,,,0.58,Wunderground v.1.15,2013-07-06 05:25:00,
2013-07-06 01:26:00,67.2,65.7,30.14,SSW,192,0.0,0.0,95,0.00,,,0.58,Wunderground v.1.15,2013-07-06 05:26:00,
2013-07-06 01:27:00,67.3,65.8,30.14,SSW,196,0.0,0.0,95,0.00,,,0.58,Wunderground v.1.15,2013-07-06 05:27:00,
2013-07-06 01:28:00,67.3,65.8,30.14,SSW,196,0.0,0.0,95,0.00,,,0.58,Wunderground v.1.15,2013-07-06 05:28:00,
2013-07-06 01:29:00,67.3,65.8,30.14,SSW,196,0.0,0.0,95,0.00,,,0.58,Wunderground v.1.15,2013-07-06 05:29:00,
2013-07-06 01:30:00,67.4,65.9,30.14,SSW,196,0.0,0.0,95,0.00,,,0.58,Wunderground v.1.15,2013-07-06 05:30:00,
2013-07-06 01:32:00,67.7,66.5,30.14,SSW,207,0.0,0.0,96,0.05,,,0.10,Wunderground v.1.15,2013-07-06 05:32:00,
2013-07-06 01:33:00,67.5,66.0,30.13,SSW,196,0.0,0.0,95,0.00,,,0.58,Wunderground v.1.15,2013-07-06 05:33:00,
2013-07-06 01:38:00,67.7,66.5,30.14,SSW,207,0.0,0.0,96,0.13,,,0.12,Wunderground v.1.15,2013-07-06 05:38:00,
2013-07-06 01:39:00,67.5,66.0,30.14,SSW,196,0.0,1.0,95,0.00,,,0.58,Wunderground v.1.15,2013-07-06 05:39:00,
2013-07-06 01:42:00,67.6,66.1,30.14,SSW,196,0.0,0.0,95,0.00,,,0.58,Wunderground v.1.15,2013-07-06 05:42:00,
2013-07-06 01:43:00,67.6,66.1,30.14,SSW,196,0.0,0.0,95,0.00,,,0.58,Wunderground v.1.15,2013-07-06 05:43:00,
2013-07-06 01:44:00,67.7,66.5,30.14,SSW,207,0.0,0.0,96,0.10,,,0.12,Wunderground v.1.15,2013-07-06 05:44:00,
2013-07-06 01:45:00,67.6,66.4,30.14,SSW,207,0.0,0.0,96,0.08,,,0.12,Wunderground v.1.15,2013-07-06 05:45:00,
2013-07-06 01:48:00,67.6,66.4,30.14,SSW,207,0.0,0.0,96,0.06,,,0.12,Wunderground v.1.15,2013-07-06 05:48:00,
2013-07-06 01:49:00,67.7,66.2,30.14,SSW,196,0.0,0.0,95,0.00,,,0.58,Wunderground v.1.15,2013-07-06 05:49:00,
2013-07-06 01:50:00,67.6,66.4,30.14,SSW,207,0.0,0.0,96,0.05,,,0.12,Wunderground v.1.15,2013-07-06 05:50:00,
2013-07-06 01:52:00,67.8,66.3,30.14,South,182,0.0,0.0,95,0.00,,,0.58,Wunderground v.1.15,2013-07-06 05:52:00,
2013-07-06 01:53:00,67.6,66.4,30.13,SSW,207,0.0,0.0,96,0.04,,,0.12,Wunderground v.1.15,2013-07-06 05:53:00,
2013-07-06 01:54:00,67.6,66.4,30.13,SSW,207,0.0,0.0,96,0.04,,,0.12,Wunderground v.1.15,2013-07-06 05:54:00,
2013-07-06 01:55:00,67.8,66.3,30.14,South,182,0.0,0.0,95,0.00,,,0.58,Wunderground v.1.15,2013-07-06 05:55:00,
2013-07-06 01:56:00,67.6,66.4,30.13,SSW,207,0.0,0.0,96,0.00,,,0.12,Wunderground v.1.15,2013-07-06 05:56:00,
2013-07-06 01:58:00,67.8,66.3,30.13,South,182,0.0,0.0,95,0.00,,,0.58,Wunderground v.1.15,2013-07-06 05:58:00,
2013-07-06 01:59:00,67.8,66.3,30.13,South,182,0.0,0.0,95,0.00,,,0.58,Wunderground v.1.15,2013-07-06 05:59:00,
2013-07-06 02:00:00,67.7,66.2,30.13,South,182,0.0,0.0,95,0.00,,,0.58,Wunderground v.1.15,2013-07-06 06:00:00,
2013-07-06 02:01:00,67.5,66.3,30.13,SSW,207,0.0,0.0,96,0.00,,,0.12,Wunderground v.1.15,2013-07-06 06:01:00,
2013-07-06 02:02:00,67.7,65.9,30.13,South,182,0.0,0.0,94,0.00,,,0.58,Wunderground v.1.15,2013-07-06 06:02:00,
2013-07-06 02:03:00,67.8,66.0,30.13,South,182,0.0,0.0,94,0.00,,,0.58,Wunderground v.1.15,2013-07-06 06:03:00,
2013-07-06 02:04:00,67.5,66.3,30.13,SSW,207,0.0,0.0,96,0.00,,,0.12,Wunderground v.1.15,2013-07-06 06:04:00,
2013-07-06 02:05:00,67.5,66.3,30.13,SSW,207,0.0,0.0,96,0.00,,,0.12,Wunderground v.1.15,2013-07-06 06:05:00,
2013-07-06 02:06:00,67.9,66.4,30.14,South,183,0.0,0.0,95,0.00,,,0.58,Wunderground v.1.15,2013-07-06 06:06:00,
2013-07-06 02:07:00,67.5,66.3,30.13,SSW,207,0.0,0.0,96,0.00,,,0.12,Wunderground v.1.15,2013-07-06 06:07:00,
2013-07-06 02:08:00,67.5,66.3,30.13,SSW,207,0.0,0.0,96,0.00,,,0.12,Wunderground v.1.15,2013-07-06 06:08:00,
2013-07-06 02:09:00,67.4,66.2,30.13,SSW,207,0.0,0.0,96,0.00,,,0.12,Wunderground v.1.15,2013-07-06 06:09:00,
2013-07-06 02:10:00,67.5,66.3,30.12,SSW,207,0.0,0.0,96,0.00,,,0.12,Wunderground v.1.15,2013-07-06 06:10:00,
2013-07-06 02:11:00,67.8,66.0,30.14,South,183,0.0,0.0,94,0.00,,,0.58,Wunderground v.1.15,2013-07-06 06:11:00,
2013-07-06 02:13:00,67.9,66.1,30.14,South,183,0.0,0.0,94,0.00,,,0.58,Wunderground v.1.15,2013-07-06 06:13:00,
2013-07-06 02:14:00,67.4,66.2,30.12,SSW,207,0.0,0.0,96,0.00,,,0.12,Wunderground v.1.15,2013-07-06 06:14:00,
2013-07-06 02:15:00,68.0,66.5,30.14,South,183,0.0,0.0,95,0.00,,,0.58,Wunderground v.1.15,2013-07-06 06:15:00,
2013-07-06 02:16:00,67.4,66.2,30.12,SSW,207,0.0,0.0,96,0.00,,,0.12,Wunderground v.1.15,2013-07-06 06:16:00,
2013-07-06 02:17:00,68.0,66.2,30.14,South,183,0.0,0.0,94,0.00,,,0.58,Wunderground v.1.15,2013-07-06 06:17:00,
2013-07-06 02:18:00,68.1,66.3,30.14,South,183,0.0,0.0,94,0.00,,,0.58,Wunderground v.1.15,2013-07-06 06:18:00,
2013-07-06 02:19:00,68.1,66.6,30.14,South,183,0.0,0.0,95,0.00,,,0.58,Wunderground v.1.15,2013-07-06 06:19:00,
2013-07-06 02:20:00,67.4,66.2,30.11,SSW,207,0.0,0.0,96,0.00,,,0.12,Wunderground v.1.15,2013-07-06 06:20:00,
2013-07-06 02:21:00,67.4,66.2,30.11,SSW,207,0.0,0.0,96,0.00,,,0.12,Wunderground v.1.15,2013-07-06 06:21:00,
2013-07-06 02:22:00,68.2,66.7,30.14,South,183,0.0,0.0,95,0.00,,,0.58,Wunderground v.1.15,2013-07-06 06:22:00,
2013-07-06 02:23:00,67.4,66.2,30.11,SSW,207,0.0,0.0,96,0.00,,,0.12,Wunderground v.1.15,2013-07-06 06:23:00,
2013-07-06 02:24:00,68.3,66.8,30.14,South,183,0.0,0.0,95,0.00,,,0.58,Wunderground v.1.15,2013-07-06 06:24:00,
2013-07-06 02:26:00,67.4,66.2,30.11,SSW,207,0.0,0.0,96,0.00,,,0.12,Wunderground v.1.15,2013-07-06 06:26:00,
2013-07-06 02:27:00,67.4,66.2,30.11,SSW,207,0.0,0.0,96,0.00,,,0.12,Wunderground v.1.15,2013-07-06 06:27:00,
2013-07-06 02:28:00,67.4,66.2,30.11,SSW,207,0.0,0.0,96,0.00,,,0.12,Wunderground v.1.15,2013-07-06 06:28:00,
2013-07-06 02:29:00,68.3,66.8,30.14,South,183,0.0,0.0,95,0.00,,,0.58,Wunderground v.1.15,2013-07-06 06:29:00,
2013-07-06 02:30:00,67.4,66.2,30.11,SSW,207,0.0,0.0,96,0.00,,,0.12,Wunderground v.1.15,2013-07-06 06:30:00,
2013-07-06 02:31:00,68.5,67.0,30.14,South,183,0.0,0.0,95,0.00,,,0.58,Wunderground v.1.15,2013-07-06 06:31:00,
2013-07-06 02:32:00,68.5,67.0,30.14,South,183,0.0,0.0,95,0.00,,,0.58,Wunderground v.1.15,2013-07-06 06:32:00,
2013-07-06 02:33:00,68.6,67.1,30.14,South,183,0.0,0.0,95,0.00,,,0.58,Wunderground v.1.15,2013-07-06 06:33:00,
2013-07-06 02:34:00,67.3,66.1,30.11,SSW,207,0.0,0.0,96,0.00,,,0.12,Wunderground v.1.15,2013-07-06 06:34:00,
2013-07-06 02:35:00,67.3,66.1,30.11,SSW,207,0.0,0.0,96,0.00,,,0.12,Wunderground v.1.15,2013-07-06 06:35:00,
2013-07-06 02:37:00,67.2,66.0,30.11,SSW,207,0.0,0.0,96,0.00,,,0.12,Wunderground v.1.15,2013-07-06 06:37:00,
2013-07-06 02:38:00,68.6,66.8,30.13,South,183,0.0,0.0,94,0.00,,,0.58,Wunderground v.1.15,2013-07-06 06:38:00,
2013-07-06 02:39:00,68.6,66.8,30.13,South,183,0.0,0.0,94,0.00,,,0.58,Wunderground v.1.15,2013-07-06 06:39:00,
2013-07-06 02:40:00,68.6,66.8,30.13,South,183,0.0,0.0,94,0.00,,,0.58,Wunderground v.1.15,2013-07-06 06:40:00,
2013-07-06 02:41:00,67.2,66.0,30.11,SSW,207,0.0,0.0,96,0.00,,,0.12,Wunderground v.1.15,2013-07-06 06:41:00,
2013-07-06 02:42:00,67.2,66.0,30.11,SSW,207,0.0,0.0,96,0.00,,,0.12,Wunderground v.1.15,2013-07-06 06:42:00,
2013-07-06 02:43:00,68.5,66.4,30.13,South,183,0.0,0.0,93,0.00,,,0.58,Wunderground v.1.15,2013-07-06 06:43:00,
2013-07-06 02:44:00,68.5,66.4,30.13,South,183,0.0,0.0,93,0.00,,,0.58,Wunderground v.1.15,2013-07-06 06:44:00,
2013-07-06 02:45:00,68.6,66.5,30.13,South,183,0.0,0.0,93,0.00,,,0.58,Wunderground v.1.15,2013-07-06 06:45:00,
2013-07-06 02:46:00,67.2,66.0,30.10,SSW,207,0.0,0.0,96,0.00,,,0.12,Wunderground v.1.15,2013-07-06 06:46:00,
2013-07-06 02:47:00,67.2,66.0,30.11,SSW,207,0.0,0.0,96,0.00,,,0.12,Wunderground v.1.15,2013-07-06 06:47:00,
2013-07-06 02:48:00,68.7,66.6,30.13,South,183,0.0,0.0,93,0.00,,,0.58,Wunderground v.1.15,2013-07-06 06:48:00,
2013-07-06 02:49:00,68.7,66.9,30.13,South,183,0.0,0.0,94,0.00,,,0.58,Wunderground v.1.15,2013-07-06 06:49:00,
2013-07-06 02:50:00,68.7,66.9,30.13,South,183,0.0,0.0,94,0.00,,,0.58,Wunderground v.1.15,2013-07-06 06:50:00,
2013-07-06 02:51:00,67.1,65.9,30.11,SSW,207,0.0,0.0,96,0.00,,,0.12,Wunderground v.1.15,2013-07-06 06:51:00,
2013-07-06 02:52:00,67.1,65.9,30.11,SSW,207,0.0,0.0,96,0.00,,,0.12,Wunderground v.1.15,2013-07-06 06:52:00,
2013-07-06 02:53:00,67.1,65.9,30.11,SSW,207,0.0,0.0,96,0.00,,,0.12,Wunderground v.1.15,2013-07-06 06:53:00,
2013-07-06 02:54:00,67.1,65.9,30.11,SSW,207,0.0,0.0,96,0.00,,,0.12,Wunderground v.1.15,2013-07-06 06:54:00,
2013-07-06 02:55:00,67.1,65.9,30.11,SSW,207,0.0,0.0,96,0.00,,,0.12,Wunderground v.1.15,2013-07-06 06:55:00,
2013-07-06 02:56:00,69.1,67.3,30.13,South,183,0.0,0.0,94,0.00,,,0.58,Wunderground v.1.15,2013-07-06 06:56:00,
2013-07-06 02:57:00,69.1,67.3,30.13,South,183,0.0,0.0,94,0.00,,,0.58,Wunderground v.1.15,2013-07-06 06:57:00,
2013-07-06 02:58:00,67.1,65.9,30.12,SSW,207,0.0,0.0,96,0.00,,,0.12,Wunderground v.1.15,2013-07-06 06:58:00,
2013-07-06 02:59:00,69.2,67.4,30.13,South,183,0.0,0.0,94,0.00,,,0.58,Wunderground v.1.15,2013-07-06 06:59:00,
2013-07-06 03:00:00,69.2,67.4,30.13,South,183,0.0,0.0,94,0.00,,,0.58,Wunderground v.1.15,2013-07-06 07:00:00,
2013-07-06 03:01:00,67.0,65.8,30.12,SSW,207,0.0,0.0,96,0.00,,,0.13,Wunderground v.1.15,2013-07-06 07:01:00,
2013-07-06 03:03:00,69.3,67.5,30.13,South,183,0.0,0.0,94,0.00,,,0.58,Wunderground v.1.15,2013-07-06 07:03:00,
2013-07-06 03:04:00,67.0,65.8,30.12,SSW,207,0.0,0.0,96,0.00,,,0.13,Wunderground v.1.15,2013-07-06 07:04:00,
2013-07-06 03:05:00,67.0,65.8,30.12,SSW,207,0.0,0.0,96,0.00,,,0.13,Wunderground v.1.15,2013-07-06 07:05:00,
2013-07-06 03:06:00,67.0,65.8,30.12,SSW,207,0.0,0.0,96,0.00,,,0.13,Wunderground v.1.15,2013-07-06 07:06:00,
2013-07-06 03:07:00,69.2,67.1,30.13,South,183,0.0,0.0,93,0.00,,,0.58,Wunderground v.1.15,2013-07-06 07:07:00,
2013-07-06 03:09:00,67.0,65.8,30.12,SSW,207,0.0,0.0,96,0.00,,,0.13,Wunderground v.1.15,2013-07-06 07:09:00,
2013-07-06 03:10:00,67.0,65.8,30.12,SSW,207,0.0,0.0,96,0.00,,,0.13,Wunderground v.1.15,2013-07-06 07:10:00,
2013-07-06 03:12:00,67.1,65.9,30.12,SSW,207,0.0,0.0,96,0.05,,,0.14,Wunderground v.1.15,2013-07-06 07:12:00,
2013-07-06 03:13:00,69.4,67.6,30.13,South,183,0.0,0.0,94,0.00,,,0.58,Wunderground v.1.15,2013-07-06 07:13:00,
2013-07-06 03:14:00,67.0,65.8,30.12,SSW,207,0.0,0.0,96,0.05,,,0.14,Wunderground v.1.15,2013-07-06 07:14:00,
2013-07-06 03:15:00,67.0,65.8,30.12,SSW,207,0.0,0.0,96,0.05,,,0.14,Wunderground v.1.15,2013-07-06 07:15:00,
2013-07-06 03:16:00,69.4,67.3,30.13,SW,227,0.0,0.0,93,0.00,,,0.58,Wunderground v.1.15,2013-07-06 07:16:00,
2013-07-06 03:17:00,67.0,65.8,30.12,SSW,207,0.0,0.0,96,0.05,,,0.14,Wunderground v.1.15,2013-07-06 07:17:00,
2013-07-06 03:18:00,69.4,67.3,30.14,SW,227,0.0,0.0,93,0.00,,,0.58,Wunderground v.1.15,2013-07-06 07:18:00,
2013-07-06 03:19:00,67.0,65.8,30.12,SSW,207,0.0,0.0,96,0.05,,,0.14,Wunderground v.1.15,2013-07-06 07:19:00,
2013-07-06 03:21:00,67.0,65.8,30.12,SSW,207,0.0,0.0,96,0.05,,,0.14,Wunderground v.1.15,2013-07-06 07:21:00,
2013-07-06 03:22:00,67.0,65.8,30.12,SSW,207,0.0,0.0,96,0.05,,,0.14,Wunderground v.1.15,2013-07-06 07:22:00,
2013-07-06 03:23:00,69.6,67.5,30.13,SW,227,0.0,0.0,93,0.00,,,0.58,Wunderground v.1.15,2013-07-06 07:23:00,
2013-07-06 03:24:00,67.1,65.9,30.12,SSW,207,0.0,0.0,96,0.04,,,0.14,Wunderground v.1.15,2013-07-06 07:24:00,
2013-07-06 03:25:00,69.7,67.6,30.14,WSW,249,0.0,0.0,93,0.00,,,0.58,Wunderground v.1.15,2013-07-06 07:25:00,
2013-07-06 03:26:00,69.7,67.3,30.14,WSW,244,0.0,3.0,92,0.00,,,0.58,Wunderground v.1.15,2013-07-06 07:26:00,
2013-07-06 03:27:00,67.1,65.9,30.12,SSW,207,0.0,0.0,96,0.04,,,0.15,Wunderground v.1.15,2013-07-06 07:27:00,
2013-07-06 03:28:00,69.7,67.3,30.13,WSW,244,0.0,3.0,92,0.00,,,0.58,Wunderground v.1.15,2013-07-06 07:28:00,
2013-07-06 03:29:00,69.7,67.3,30.13,WSW,244,0.0,3.0,92,0.00,,,0.58,Wunderground v.1.15,2013-07-06 07:29:00,
2013-07-06 03:30:00,67.1,65.9,30.12,SW,219,0.0,0.0,96,0.04,,,0.15,Wunderground v.1.15,2013-07-06 07:30:00,
2013-07-06 03:32:00,67.1,65.9,30.12,SW,219,0.0,0.0,96,0.04,,,0.15,Wunderground v.1.15,2013-07-06 07:32:00,
2013-07-06 03:33:00,69.9,67.5,30.13,WSW,256,0.0,3.0,92,0.00,,,0.58,Wunderground v.1.15,2013-07-06 07:33:00,
2013-07-06 03:34:00,67.1,65.9,30.12,SW,218,0.0,0.0,96,0.08,,,0.16,Wunderground v.1.15,2013-07-06 07:34:00,
2013-07-06 03:35:00,70.0,67.6,30.13,WSW,255,0.0,3.0,92,0.00,,,0.58,Wunderground v.1.15,2013-07-06 07:35:00,
2013-07-06 03:36:00,70.0,67.6,30.13,WSW,255,0.0,3.0,92,0.00,,,0.58,Wunderground v.1.15,2013-07-06 07:36:00,
2013-07-06 03:37:00,67.0,65.8,30.12,SW,218,0.0,0.0,96,0.08,,,0.16,Wunderground v.1.15,2013-07-06 07:37:00,
2013-07-06 03:38:00,70.1,67.3,30.13,WSW,255,0.0,3.0,91,0.00,,,0.58,Wunderground v.1.15,2013-07-06 07:38:00,
2013-07-06 03:39:00,70.0,67.3,30.13,WSW,255,0.0,3.0,91,0.00,,,0.58,Wunderground v.1.15,2013-07-06 07:39:00,
2013-07-06 03:40:00,67.0,65.8,30.12,SW,218,0.0,0.0,96,0.08,,,0.16,Wunderground v.1.15,2013-07-06 07:40:00,
2013-07-06 03:41:00,67.0,65.8,30.12,SW,218,0.0,0.0,96,0.08,,,0.16,Wunderground v.1.15,2013-07-06 07:41:00,
2013-07-06 03:42:00,70.1,67.3,30.13,WSW,255,0.0,0.0,91,0.00,,,0.58,Wunderground v.1.15,2013-07-06 07:42:00,
2013-07-06 03:43:00,67.0,65.8,30.12,SW,218,0.0,0.0,96,0.06,,,0.16,Wunderground v.1.15,2013-07-06 07:43:00,
2013-07-06 03:44:00,70.1,67.0,30.13,WSW,255,0.0,0.0,90,0.00,,,0.58,Wunderground v.1.15,2013-07-06 07:44:00,
2013-07-06 03:45:00,70.2,67.1,30.13,South,169,0.0,0.0,90,0.00,,,0.58,Wunderground v.1.15,2013-07-06 07:45:00,
2013-07-06 03:46:00,67.0,65.8,30.12,SW,219,0.0,0.0,96,0.06,,,0.17,Wunderground v.1.15,2013-07-06 07:46:00,
2013-07-06 03:47:00,70.3,67.2,30.13,South,169,0.0,0.0,90,0.00,,,0.58,Wunderground v.1.15,2013-07-06 07:47:00,
2013-07-06 03:48:00,67.0,65.8,30.12,SW,218,0.0,0.0,96,0.16,,,0.18,Wunderground v.1.15,2013-07-06 07:48:00,
2013-07-06 03:49:00,70.4,67.6,30.13,South,186,0.0,0.0,91,0.00,,,0.58,Wunderground v.1.15,2013-07-06 07:49:00,
2013-07-06 03:50:00,70.5,67.4,30.13,South,186,0.0,0.0,90,0.00,,,0.58,Wunderground v.1.15,2013-07-06 07:50:00,
2013-07-06 03:51:00,70.5,67.4,30.13,South,186,0.0,0.0,90,0.00,,,0.58,Wunderground v.1.15,2013-07-06 07:51:00,
2013-07-06 03:53:00,67.0,65.8,30.12,SW,218,0.0,0.0,96,0.30,,,0.20,Wunderground v.1.15,2013-07-06 07:53:00,
2013-07-06 03:54:00,70.7,67.6,30.13,South,186,0.0,0.0,90,0.00,,,0.58,Wunderground v.1.15,2013-07-06 07:54:00,
2013-07-06 03:55:00,66.9,65.7,30.12,SW,218,0.0,0.0,96,0.25,,,0.20,Wunderground v.1.15,2013-07-06 07:55:00,
2013-07-06 03:56:00,66.9,65.7,30.12,SW,218,0.0,0.0,96,0.17,,,0.21,Wunderground v.1.15,2013-07-06 07:56:00,
2013-07-06 03:57:00,70.8,67.4,30.13,South,186,0.0,0.0,89,0.00,,,0.58,Wunderground v.1.15,2013-07-06 07:57:00,
2013-07-06 03:58:00,66.8,65.6,30.12,SW,219,0.0,0.0,96,0.17,,,0.21,Wunderground v.1.15,2013-07-06 07:58:00,
2013-07-06 03:59:00,70.9,67.5,30.13,South,186,0.0,0.0,89,0.00,,,0.58,Wunderground v.1.15,2013-07-06 07:59:00,
2013-07-06 04:00:00,66.8,65.6,30.12,SW,217,0.0,0.0,96,0.25,,,0.22,Wunderground v.1.15,2013-07-06 08:00:00,
2013-07-06 04:02:00,66.8,65.6,30.12,West,261,0.0,0.0,96,0.16,,,0.22,Wunderground v.1.15,2013-07-06 08:02:00,
2013-07-06 04:03:00,66.7,65.5,30.12,SE,138,0.0,0.0,96,0.11,,,0.22,Wunderground v.1.15,2013-07-06 08:03:00,
2013-07-06 04:04:00,71.2,67.1,30.13,South,186,0.0,0.0,87,0.00,,,0.58,Wunderground v.1.15,2013-07-06 08:04:00,
2013-07-06 04:05:00,66.7,65.5,30.11,SW,234,0.0,0.0,96,0.11,,,0.23,Wunderground v.1.15,2013-07-06 08:05:00,
2013-07-06 04:06:00,71.4,68.0,30.13,South,186,0.0,0.0,89,0.00,,,0.58,Wunderground v.1.15,2013-07-06 08:06:00,
2013-07-06 04:07:00,71.5,68.4,30.13,South,186,0.0,0.0,90,0.00,,,0.58,Wunderground v.1.15,2013-07-06 08:07:00,
2013-07-06 04:08:00,71.6,68.5,30.13,South,186,0.0,0.0,90,0.00,,,0.58,Wunderground v.1.15,2013-07-06 08:08:00,
2013-07-06 04:09:00,71.5,67.8,30.13,South,186,0.0,0.0,88,0.00,,,0.58,Wunderground v.1.15,2013-07-06 08:09:00,
2013-07-06 04:10:00,66.3,65.1,30.11,South,181,0.0,0.0,96,0.14,,,0.24,Wunderground v.1.15,2013-07-06 08:10:00,
2013-07-06 04:11:00,66.2,65.0,30.11,South,181,0.0,0.0,96,0.14,,,0.24,Wunderground v.1.15,2013-07-06 08:11:00,
2013-07-06 04:12:00,66.1,64.9,30.11,South,181,0.0,0.0,96,0.13,,,0.24,Wunderground v.1.15,2013-07-06 08:12:00,
2013-07-06 04:13:00,71.7,67.6,30.12,South,186,0.0,0.0,87,0.00,,,0.58,Wunderground v.1.15,2013-07-06 08:13:00,
2013-07-06 04:14:00,66.1,64.9,30.11,South,181,0.0,0.0,96,0.10,,,0.24,Wunderground v.1.15,2013-07-06 08:14:00,
2013-07-06 04:15:00,71.8,67.4,30.13,South,186,0.0,0.0,86,0.00,,,0.58,Wunderground v.1.15,2013-07-06 08:15:00,
2013-07-06 04:16:00,71.9,67.5,30.12,South,186,0.0,0.0,86,0.00,,,0.58,Wunderground v.1.15,2013-07-06 08:16:00,
2013-07-06 04:17:00,65.9,64.7,30.12,South,181,0.0,0.0,96,0.07,,,0.25,Wunderground v.1.15,2013-07-06 08:17:00,
2013-07-06 04:18:00,65.9,64.7,30.12,South,181,0.0,0.0,96,0.07,,,0.25,Wunderground v.1.15,2013-07-06 08:18:00,
2013-07-06 04:19:00,65.9,64.7,30.12,South,181,0.0,0.0,96,0.07,,,0.25,Wunderground v.1.15,2013-07-06 08:19:00,
2013-07-06 04:20:00,72.2,68.1,30.12,SW,220,0.0,3.0,87,0.00,,,0.58,Wunderground v.1.15,2013-07-06 08:20:00,
2013-07-06 04:21:00,65.8,64.6,30.12,South,181,0.0,0.0,96,0.15,,,0.26,Wunderground v.1.15,2013-07-06 08:21:00,
2013-07-06 04:22:00,72.1,67.7,30.12,SW,223,0.0,3.0,86,0.00,,,0.58,Wunderground v.1.15,2013-07-06 08:22:00,
2013-07-06 04:24:00,65.8,64.6,30.12,South,181,0.0,0.0,96,0.15,,,0.26,Wunderground v.1.15,2013-07-06 08:24:00,
2013-07-06 04:25:00,72.4,68.0,30.12,SW,223,0.0,3.0,86,0.00,,,0.58,Wunderground v.1.15,2013-07-06 08:25:00,
2013-07-06 04:26:00,65.8,64.6,30.12,South,181,0.0,0.0,96,0.15,,,0.27,Wunderground v.1.15,2013-07-06 08:26:00,
2013-07-06 04:27:00,72.5,68.1,30.12,SW,223,0.0,3.0,86,0.00,,,0.58,Wunderground v.1.15,2013-07-06 08:27:00,
2013-07-06 04:28:00,65.7,64.5,30.12,South,181,0.0,0.0,96,0.37,,,0.28,Wunderground v.1.15,2013-07-06 08:28:00,
2013-07-06 04:29:00,65.7,64.5,30.12,South,181,0.0,0.0,96,0.24,,,0.28,Wunderground v.1.15,2013-07-06 08:29:00,
2013-07-06 04:30:00,72.6,67.8,30.12,SW,223,0.0,0.0,85,0.00,,,0.58,Wunderground v.1.15,2013-07-06 08:30:00,
2013-07-06 04:31:00,72.7,68.3,30.12,SW,223,0.0,0.0,86,0.00,,,0.58,Wunderground v.1.15,2013-07-06 08:31:00,
2013-07-06 04:32:00,65.7,64.5,30.12,South,181,0.0,0.0,96,0.17,,,0.29,Wunderground v.1.15,2013-07-06 08:32:00,
2013-07-06 04:33:00,72.9,68.5,30.12,SW,223,0.0,0.0,86,0.00,,,0.58,Wunderground v.1.15,2013-07-06 08:33:00,
2013-07-06 04:34:00,72.9,68.8,30.12,SW,223,0.0,0.0,87,0.00,,,0.58,Wunderground v.1.15,2013-07-06 08:34:00,
2013-07-06 04:35:00,65.7,64.5,30.12,South,181,0.0,0.0,96,0.14,,,0.30,Wunderground v.1.15,2013-07-06 08:35:00,
2013-07-06 04:36:00,73.0,69.2,30.12,SW,223,0.0,0.0,88,0.00,,,0.58,Wunderground v.1.15,2013-07-06 08:36:00,
2013-07-06 04:37:00,73.1,69.7,30.12,SW,223,0.0,0.0,89,0.00,,,0.58,Wunderground v.1.15,2013-07-06 08:37:00,
2013-07-06 04:38:00,65.7,64.5,30.12,South,181,0.0,0.0,96,0.14,,,0.30,Wunderground v.1.15,2013-07-06 08:38:00,
2013-07-06 04:39:00,65.7,64.5,30.12,South,181,0.0,0.0,96,0.13,,,0.30,Wunderground v.1.15,2013-07-06 08:39:00,
2013-07-06 04:40:00,73.3,68.5,30.12,SW,223,0.0,0.0,85,0.00,,,0.58,Wunderground v.1.15,2013-07-06 08:40:00,
2013-07-06 04:41:00,65.7,64.5,30.12,South,181,0.0,0.0,96,0.10,,,0.31,Wunderground v.1.15,2013-07-06 08:41:00,
2013-07-06 04:43:00,73.5,68.4,30.12,SW,223,0.0,0.0,84,0.00,,,0.58,Wunderground v.1.15,2013-07-06 08:43:00,
2013-07-06 04:44:00,73.4,67.9,30.12,SW,223,0.0,0.0,83,0.00,,,0.58,Wunderground v.1.15,2013-07-06 08:44:00,
2013-07-06 04:45:00,73.5,68.4,30.12,SW,223,0.0,0.0,84,0.00,,,0.58,Wunderground v.1.15,2013-07-06 08:45:00,
2013-07-06 04:46:00,65.7,64.5,30.12,South,181,0.0,0.0,96,0.20,,,0.32,Wunderground v.1.15,2013-07-06 08:46:00,
2013-07-06 04:47:00,73.5,68.4,30.12,SW,223,0.0,0.0,84,0.00,,,0.58,Wunderground v.1.15,2013-07-06 08:47:00,
2013-07-06 04:48:00,65.7,64.5,30.12,South,181,0.0,0.0,96,0.44,,,0.34,Wunderground v.1.15,2013-07-06 08:48:00,
2013-07-06 04:49:00,73.5,68.4,30.12,SW,223,0.0,0.0,84,0.00,,,0.58,Wunderground v.1.15,2013-07-06 08:49:00,
2013-07-06 04:50:00,65.6,64.4,30.12,South,181,0.0,0.0,96,0.24,,,0.34,Wunderground v.1.15,2013-07-06 08:50:00,
2013-07-06 04:51:00,65.6,64.4,30.12,South,181,0.0,0.0,96,0.22,,,0.35,Wunderground v.1.15,2013-07-06 08:51:00,
2013-07-06 04:52:00,73.5,68.4,30.12,SW,223,0.0,0.0,84,0.00,,,0.58,Wunderground v.1.15,2013-07-06 08:52:00,
2013-07-06 04:53:00,65.6,64.4,30.12,South,181,0.0,0.0,96,0.37,,,0.36,Wunderground v.1.15,2013-07-06 08:53:00,
2013-07-06 04:54:00,65.6,64.4,30.12,South,181,0.0,0.0,96,0.26,,,0.36,Wunderground v.1.15,2013-07-06 08:54:00,
2013-07-06 04:55:00,73.5,68.4,30.12,SW,223,0.0,0.0,84,0.00,,,0.58,Wunderground v.1.15,2013-07-06 08:55:00,
2013-07-06 04:56:00,65.5,64.3,30.12,WSW,244,0.0,0.0,96,0.17,,,0.37,Wunderground v.1.15,2013-07-06 08:56:00,
2013-07-06 04:57:00,73.5,69.4,30.12,SW,223,0.0,0.0,87,0.00,,,0.58,Wunderground v.1.15,2013-07-06 08:57:00,
2013-07-06 04:58:00,65.5,64.3,30.12,WSW,244,0.0,0.0,96,0.17,,,0.37,Wunderground v.1.15,2013-07-06 08:58:00,
2013-07-06 04:59:00,73.5,69.1,30.12,SW,223,0.0,0.0,86,0.00,,,0.58,Wunderground v.1.15,2013-07-06 08:59:00,
2013-07-06 05:00:00,65.5,64.3,30.12,WSW,244,0.0,0.0,96,0.13,,,0.37,Wunderground v.1.15,2013-07-06 09:00:00,
2013-07-06 05:01:00,73.4,69.3,30.12,SW,223,0.0,0.0,87,0.00,,,0.58,Wunderground v.1.15,2013-07-06 09:01:00,
2013-07-06 05:02:00,65.5,64.3,30.12,SW,228,0.0,1.0,96,0.13,,,0.38,Wunderground v.1.15,2013-07-06 09:02:00,
2013-07-06 05:03:00,65.5,64.3,30.12,SW,228,0.0,1.0,96,0.13,,,0.38,Wunderground v.1.15,2013-07-06 09:03:00,
2013-07-06 05:04:00,65.4,64.2,30.12,SW,228,0.0,1.0,96,0.12,,,0.38,Wunderground v.1.15,2013-07-06 09:04:00,
2013-07-06 05:05:00,73.1,68.3,30.12,SW,223,0.0,0.0,85,0.00,,,0.58,Wunderground v.1.15,2013-07-06 09:05:00,
2013-07-06 05:06:00,73.1,68.7,30.12,SW,223,0.0,0.0,86,0.00,,,0.58,Wunderground v.1.15,2013-07-06 09:06:00,
2013-07-06 05:07:00,65.3,64.1,30.12,South,187,0.0,1.0,96,0.10,,,0.39,Wunderground v.1.15,2013-07-06 09:07:00,
2013-07-06 05:08:00,73.0,68.9,30.12,SW,223,0.0,0.0,87,0.00,,,0.58,Wunderground v.1.15,2013-07-06 09:08:00,
2013-07-06 05:09:00,65.3,64.1,30.12,South,187,0.0,1.0,96,0.10,,,0.39,Wunderground v.1.15,2013-07-06 09:09:00,
2013-07-06 05:10:00,65.3,64.1,30.12,South,187,0.0,0.0,96,0.16,,,0.40,Wunderground v.1.15,2013-07-06 09:10:00,
2013-07-06 05:11:00,72.9,67.8,30.12,SW,223,0.0,0.0,84,0.00,,,0.58,Wunderground v.1.15,2013-07-06 09:11:00,
2013-07-06 05:12:00,72.9,67.8,30.12,SW,223,0.0,0.0,84,0.00,,,0.58,Wunderground v.1.15,2013-07-06 09:12:00,
2013-07-06 05:13:00,65.2,64.0,30.12,South,187,0.0,0.0,96,0.16,,,0.40,Wunderground v.1.15,2013-07-06 09:13:00,
2013-07-06 05:14:00,72.9,67.4,30.12,SW,223,0.0,0.0,83,0.00,,,0.58,Wunderground v.1.15,2013-07-06 09:14:00,
2013-07-06 05:15:00,72.9,67.1,30.12,SW,223,0.0,0.0,82,0.00,,,0.58,Wunderground v.1.15,2013-07-06 09:15:00,
2013-07-06 05:16:00,65.1,63.9,30.12,South,187,0.0,0.0,96,0.09,,,0.40,Wunderground v.1.15,2013-07-06 09:16:00,
2013-07-06 05:17:00,72.9,67.1,30.12,SW,223,0.0,0.0,82,0.00,,,0.58,Wunderground v.1.15,2013-07-06 09:17:00,
2013-07-06 05:18:00,65.1,63.9,30.12,South,187,0.0,0.0,96,0.09,,,0.41,Wunderground v.1.15,2013-07-06 09:18:00,
2013-07-06 05:19:00,73.0,67.9,30.12,SW,223,0.0,0.0,84,0.00,,,0.58,Wunderground v.1.15,2013-07-06 09:19:00,
2013-07-06 05:20:00,73.1,68.0,30.12,SW,223,0.0,0.0,84,0.00,,,0.58,Wunderground v.1.15,2013-07-06 09:20:00,
2013-07-06 05:21:00,65.0,63.8,30.11,South,187,0.0,0.0,96,0.18,,,0.42,Wunderground v.1.15,2013-07-06 09:21:00,
2013-07-06 05:22:00,73.1,68.7,30.12,SW,223,0.0,0.0,86,0.00,,,0.58,Wunderground v.1.15,2013-07-06 09:22:00,
2013-07-06 05:23:00,65.0,63.8,30.11,South,187,0.0,0.0,96,0.16,,,0.42,Wunderground v.1.15,2013-07-06 09:23:00,
2013-07-06 05:24:00,73.2,69.1,30.12,SW,223,0.0,0.0,87,0.00,,,0.58,Wunderground v.1.15,2013-07-06 09:24:00,
2013-07-06 05:25:00,73.1,68.7,30.12,SW,223,0.0,0.0,86,0.00,,,0.58,Wunderground v.1.15,2013-07-06 09:25:00,
2013-07-06 05:26:00,73.1,68.3,30.12,SW,223,0.0,0.0,85,0.00,,,0.58,Wunderground v.1.15,2013-07-06 09:26:00,
2013-07-06 05:27:00,64.9,63.7,30.11,South,187,0.0,0.0,96,0.15,,,0.43,Wunderground v.1.15,2013-07-06 09:27:00,
2013-07-06 05:28:00,73.1,68.3,30.12,SW,223,0.0,0.0,85,0.00,,,0.58,Wunderground v.1.15,2013-07-06 09:28:00,
2013-07-06 05:29:00,64.9,63.7,30.11,South,187,0.0,0.0,96,0.15,,,0.44,Wunderground v.1.15,2013-07-06 09:29:00,
2013-07-06 05:30:00,73.2,68.8,30.12,SW,223,0.0,0.0,86,0.00,,,0.58,Wunderground v.1.15,2013-07-06 09:30:00,
2013-07-06 05:31:00,73.3,68.9,30.12,SW,223,0.0,0.0,86,0.00,,,0.58,Wunderground v.1.15,2013-07-06 09:31:00,
2013-07-06 05:32:00,73.3,68.2,30.12,SW,223,0.0,0.0,84,0.00,,,0.58,Wunderground v.1.15,2013-07-06 09:32:00,
2013-07-06 05:33:00,73.3,68.5,30.12,SW,223,0.0,0.0,85,0.00,,,0.58,Wunderground v.1.15,2013-07-06 09:33:00,
2013-07-06 05:34:00,64.8,63.6,30.11,South,187,0.0,0.0,96,0.12,,,0.45,Wunderground v.1.15,2013-07-06 09:34:00,
2013-07-06 05:36:00,64.8,63.6,30.11,South,187,0.0,0.0,96,0.12,,,0.45,Wunderground v.1.15,2013-07-06 09:36:00,
2013-07-06 05:37:00,73.3,68.9,30.12,SW,223,0.0,0.0,86,0.00,,,0.58,Wunderground v.1.15,2013-07-06 09:37:00,
2013-07-06 05:38:00,64.8,63.6,30.11,South,187,0.0,0.0,96,0.13,,,0.46,Wunderground v.1.15,2013-07-06 09:38:00,
2013-07-06 05:39:00,64.8,63.6,30.11,South,187,0.0,0.0,96,0.13,,,0.46,Wunderground v.1.15,2013-07-06 09:39:00,
2013-07-06 05:40:00,73.2,68.4,30.12,SW,223,0.0,0.0,85,0.00,,,0.58,Wunderground v.1.15,2013-07-06 09:40:00,
2013-07-06 05:41:00,64.8,63.6,30.11,South,187,0.0,0.0,96,0.13,,,0.46,Wunderground v.1.15,2013-07-06 09:41:00,
2013-07-06 05:42:00,73.1,68.3,30.12,SW,223,0.0,0.0,85,0.00,,,0.58,Wunderground v.1.15,2013-07-06 09:42:00,
2013-07-06 05:43:00,73.1,68.0,30.12,SW,223,0.0,0.0,84,0.00,,,0.58,Wunderground v.1.15,2013-07-06 09:43:00,
2013-07-06 05:44:00,73.1,68.7,30.12,SW,223,0.0,0.0,86,0.00,,,0.58,Wunderground v.1.15,2013-07-06 09:44:00,
2013-07-06 05:45:00,73.1,69.0,30.12,SW,223,0.0,0.0,87,0.00,,,0.58,Wunderground v.1.15,2013-07-06 09:45:00,
2013-07-06 05:46:00,64.8,63.6,30.10,South,187,0.0,0.0,96,0.06,,,0.46,Wunderground v.1.15,2013-07-06 09:46:00,
2013-07-06 05:47:00,64.8,63.6,30.10,South,187,0.0,0.0,96,0.06,,,0.46,Wunderground v.1.15,2013-07-06 09:47:00,
2013-07-06 05:48:00,73.1,68.0,30.11,SW,223,0.0,0.0,84,0.00,,,0.58,Wunderground v.1.15,2013-07-06 09:48:00,
2013-07-06 05:49:00,64.8,63.6,30.10,South,187,0.0,0.0,96,0.05,,,0.46,Wunderground v.1.15,2013-07-06 09:49:00,
2013-07-06 05:50:00,73.2,68.8,30.11,SW,223,0.0,0.0,86,0.00,,,0.58,Wunderground v.1.15,2013-07-06 09:50:00,
2013-07-06 05:52:00,64.8,63.6,30.10,South,187,0.0,0.0,96,0.04,,,0.47,Wunderground v.1.15,2013-07-06 09:52:00,
2013-07-06 05:53:00,73.2,68.8,30.12,SW,223,0.0,0.0,86,0.00,,,0.58,Wunderground v.1.15,2013-07-06 09:53:00,
2013-07-06 05:54:00,64.8,63.6,30.10,South,187,0.0,0.0,96,0.04,,,0.47,Wunderground v.1.15,2013-07-06 09:54:00,
2013-07-06 05:55:00,64.8,63.6,30.10,South,187,0.0,0.0,96,0.04,,,0.47,Wunderground v.1.15,2013-07-06 09:55:00,
2013-07-06 05:56:00,64.8,63.6,30.10,South,187,0.0,0.0,96,0.04,,,0.47,Wunderground v.1.15,2013-07-06 09:56:00,
2013-07-06 05:57:00,73.2,67.7,30.12,SW,223,0.0,0.0,83,0.00,,,0.58,Wunderground v.1.15,2013-07-06 09:57:00,
2013-07-06 05:58:00,64.8,63.6,30.10,South,187,0.0,0.0,96,0.04,,,0.47,Wunderground v.1.15,2013-07-06 09:58:00,
2013-07-06 06:00:00,64.8,63.6,30.10,South,187,0.0,0.0,96,0.04,,,0.47,Wunderground v.1.15,2013-07-06 10:00:00,
2013-07-06 06:01:00,73.2,68.4,30.11,SW,223,0.0,0.0,85,0.00,,,0.58,Wunderground v.1.15,2013-07-06 10:01:00,
2013-07-06 06:02:00,73.2,68.4,30.11,SW,223,0.0,0.0,85,0.00,,,0.58,Wunderground v.1.15,2013-07-06 10:02:00,
2013-07-06 06:03:00,64.7,63.5,30.10,South,187,0.0,0.0,96,0.06,,,0.48,Wunderground v.1.15,2013-07-06 10:03:00,
2013-07-06 06:04:00,73.2,68.1,30.11,SW,223,0.0,0.0,84,0.00,,,0.58,Wunderground v.1.15,2013-07-06 10:04:00,
2013-07-06 06:05:00,64.7,63.5,30.10,South,187,0.0,0.0,96,0.06,,,0.48,Wunderground v.1.15,2013-07-06 10:05:00,
2013-07-06 06:06:00,73.2,68.4,30.11,SW,223,0.0,0.0,85,0.00,,,0.58,Wunderground v.1.15,2013-07-06 10:06:00,
2013-07-06 06:07:00,64.7,63.5,30.10,South,187,0.0,0.0,96,0.06,,,0.48,Wunderground v.1.15,2013-07-06 10:07:00,
2013-07-06 06:09:00,73.3,68.5,30.11,SW,223,0.0,0.0,85,0.00,,,0.58,Wunderground v.1.15,2013-07-06 10:09:00,
2013-07-06 06:10:00,64.7,63.5,30.10,South,187,0.0,0.0,96,0.06,,,0.48,Wunderground v.1.15,2013-07-06 10:10:00,
2013-07-06 06:11:00,64.7,63.5,30.10,South,187,0.0,0.0,96,0.06,,,0.48,Wunderground v.1.15,2013-07-06 10:11:00,
2013-07-06 06:12:00,73.4,68.3,30.11,SW,223,0.0,0.0,84,0.00,,,0.58,Wunderground v.1.15,2013-07-06 10:12:00,
2013-07-06 06:13:00,73.4,68.3,30.11,SW,223,0.0,0.0,84,0.00,,,0.58,Wunderground v.1.15,2013-07-06 10:13:00,
2013-07-06 06:15:00,64.7,63.5,30.10,South,187,0.0,0.0,96,0.04,,,0.48,Wunderground v.1.15,2013-07-06 10:15:00,
2013-07-06 06:16:00,73.5,68.0,30.11,SW,223,0.0,0.0,83,0.00,,,0.58,Wunderground v.1.15,2013-07-06 10:16:00,
2013-07-06 06:17:00,64.7,63.5,30.10,South,187,0.0,0.0,96,0.04,,,0.48,Wunderground v.1.15,2013-07-06 10:17:00,
2013-07-06 06:18:00,73.5,68.7,30.11,SW,223,0.0,0.0,85,0.00,,,0.58,Wunderground v.1.15,2013-07-06 10:18:00,
2013-07-06 06:19:00,73.5,68.4,30.11,SW,223,0.0,0.0,84,0.00,,,0.58,Wunderground v.1.15,2013-07-06 10:19:00,
2013-07-06 06:21:00,64.7,63.5,30.10,South,187,0.0,0.0,96,0.00,,,0.48,Wunderground v.1.15,2013-07-06 10:21:00,
2013-07-06 06:22:00,64.7,63.5,30.10,South,187,0.0,0.0,96,0.00,,,0.48,Wunderground v.1.15,2013-07-06 10:22:00,
2013-07-06 06:23:00,64.7,63.5,30.10,South,187,0.0,0.0,96,0.00,,,0.48,Wunderground v.1.15,2013-07-06 10:23:00,
2013-07-06 06:24:00,73.3,68.9,30.11,SW,223,0.0,0.0,86,0.00,,,0.58,Wunderground v.1.15,2013-07-06 10:24:00,
2013-07-06 06:26:00,64.7,63.5,30.10,South,187,0.0,0.0,96,0.00,,,0.49,Wunderground v.1.15,2013-07-06 10:26:00,
2013-07-06 06:27:00,64.7,63.5,30.10,South,187,0.0,0.0,96,0.00,,,0.49,Wunderground v.1.15,2013-07-06 10:27:00,
2013-07-06 06:28:00,73.2,68.4,30.11,SW,223,0.0,0.0,85,0.00,,,0.58,Wunderground v.1.15,2013-07-06 10:28:00,
2013-07-06 06:29:00,73.2,68.4,30.11,SW,223,0.0,0.0,85,0.00,,,0.58,Wunderground v.1.15,2013-07-06 10:29:00,
2013-07-06 06:30:00,64.7,63.5,30.10,South,187,0.0,0.0,96,0.00,,,0.49,Wunderground v.1.15,2013-07-06 10:30:00,
2013-07-06 06:31:00,73.2,68.8,30.11,SW,223,0.0,0.0,86,0.00,,,0.58,Wunderground v.1.15,2013-07-06 10:31:00,
2013-07-06 06:32:00,73.2,68.8,30.11,SW,223,0.0,0.0,86,0.00,,,0.58,Wunderground v.1.15,2013-07-06 10:32:00,
2013-07-06 06:33:00,64.7,63.8,30.10,South,187,0.0,0.0,97,0.00,,,0.49,Wunderground v.1.15,2013-07-06 10:33:00,
2013-07-06 06:34:00,73.3,68.9,30.11,SW,223,0.0,0.0,86,0.00,,,0.58,Wunderground v.1.15,2013-07-06 10:34:00,
2013-07-06 06:35:00,64.7,63.8,30.10,South,187,0.0,0.0,97,0.06,,,0.50,Wunderground v.1.15,2013-07-06 10:35:00,
2013-07-06 06:36:00,73.3,68.9,30.11,SW,223,0.0,0.0,86,0.00,,,0.58,Wunderground v.1.15,2013-07-06 10:36:00,
2013-07-06 06:37:00,73.3,69.2,30.11,SW,223,0.0,0.0,87,0.00,,,0.58,Wunderground v.1.15,2013-07-06 10:37:00,
2013-07-06 06:38:00,64.7,63.8,30.10,South,187,0.0,0.0,97,0.06,,,0.50,Wunderground v.1.15,2013-07-06 10:38:00,
2013-07-06 06:39:00,73.2,69.1,30.11,SW,223,0.0,0.0,87,0.00,,,0.58,Wunderground v.1.15,2013-07-06 10:39:00,
2013-07-06 06:40:00,64.7,63.5,30.10,South,187,0.0,0.0,96,0.06,,,0.50,Wunderground v.1.15,2013-07-06 10:40:00,
2013-07-06 06:41:00,73.0,68.9,30.11,SW,223,0.0,0.0,87,0.00,,,0.58,Wunderground v.1.15,2013-07-06 10:41:00,
2013-07-06 06:42:00,64.7,63.5,30.11,South,187,0.0,0.0,96,0.06,,,0.50,Wunderground v.1.15,2013-07-06 10:42:00,
2013-07-06 06:43:00,72.8,69.0,30.11,SW,223,0.0,0.0,88,0.00,,,0.58,Wunderground v.1.15,2013-07-06 10:43:00,
2013-07-06 06:44:00,72.8,69.0,30.11,SW,223,0.0,0.0,88,0.00,,,0.58,Wunderground v.1.15,2013-07-06 10:44:00,
2013-07-06 06:45:00,64.7,63.8,30.11,South,187,0.0,0.0,97,0.06,,,0.50,Wunderground v.1.15,2013-07-06 10:45:00,
2013-07-06 06:46:00,64.7,63.8,30.11,South,187,0.0,0.0,97,0.05,,,0.50,Wunderground v.1.15,2013-07-06 10:46:00,
2013-07-06 06:47:00,64.7,63.8,30.11,South,187,0.0,0.0,97,0.05,,,0.50,Wunderground v.1.15,2013-07-06 10:47:00,
2013-07-06 06:48:00,72.6,68.8,30.10,SW,223,0.0,0.0,88,0.00,,,0.58,Wunderground v.1.15,2013-07-06 10:48:00,
2013-07-06 06:49:00,64.7,63.8,30.11,South,187,0.0,0.0,97,0.04,,,0.50,Wunderground v.1.15,2013-07-06 10:49:00,
2013-07-06 06:50:00,72.5,69.1,30.11,SW,223,0.0,0.0,89,0.00,,,0.58,Wunderground v.1.15,2013-07-06 10:50:00,
2013-07-06 06:51:00,72.5,69.1,30.10,SW,223,0.0,0.0,89,0.00,,,0.58,Wunderground v.1.15,2013-07-06 10:51:00,
2013-07-06 06:52:00,64.7,63.5,30.12,South,187,0.0,0.0,96,0.00,,,0.50,Wunderground v.1.15,2013-07-06 10:52:00,
2013-07-06 06:53:00,72.4,68.6,30.10,SW,223,0.0,0.0,88,0.00,,,0.58,Wunderground v.1.15,2013-07-06 10:53:00,
2013-07-06 06:54:00,72.4,69.0,30.10,SW,223,0.0,0.0,89,0.00,,,0.58,Wunderground v.1.15,2013-07-06 10:54:00,
2013-07-06 06:55:00,64.7,63.5,30.12,South,187,0.0,0.0,96,0.00,,,0.50,Wunderground v.1.15,2013-07-06 10:55:00,
2013-07-06 06:56:00,64.7,63.5,30.12,ESE,123,0.0,0.0,96,0.00,,,0.51,Wunderground v.1.15,2013-07-06 10:56:00,
2013-07-06 06:57:00,72.4,68.6,30.10,SW,223,0.0,0.0,88,0.00,,,0.58,Wunderground v.1.15,2013-07-06 10:57:00,
2013-07-06 06:58:00,72.4,68.6,30.10,SW,223,0.0,0.0,88,0.00,,,0.58,Wunderground v.1.15,2013-07-06 10:58:00,
2013-07-06 06:59:00,64.7,63.8,30.12,ESE,123,0.0,0.0,97,0.00,,,0.51,Wunderground v.1.15,2013-07-06 10:59:00,
2013-07-06 07:00:00,64.7,63.8,30.12,ESE,123,0.0,0.0,97,0.00,,,0.51,Wunderground v.1.15,2013-07-06 11:00:00,
2013-07-06 07:01:00,72.4,68.6,30.10,SW,223,0.0,0.0,88,0.00,,,0.58,Wunderground v.1.15,2013-07-06 11:01:00,
2013-07-06 07:02:00,64.7,63.8,30.12,ESE,123,0.0,0.0,97,0.00,,,0.51,Wunderground v.1.15,2013-07-06 11:02:00,
2013-07-06 07:03:00,72.4,69.0,30.10,SW,223,0.0,0.0,89,0.00,,,0.58,Wunderground v.1.15,2013-07-06 11:03:00,
2013-07-06 07:04:00,64.7,63.8,30.12,ESE,123,0.0,0.0,97,0.07,,,0.51,Wunderground v.1.15,2013-07-06 11:04:00,
2013-07-06 07:05:00,72.4,68.6,30.10,SW,223,0.0,0.0,88,0.00,,,0.58,Wunderground v.1.15,2013-07-06 11:05:00,
2013-07-06 07:07:00,64.6,63.7,30.12,ESE,123,0.0,0.0,97,0.07,,,0.52,Wunderground v.1.15,2013-07-06 11:07:00,
2013-07-06 07:08:00,72.4,68.6,30.10,SW,223,0.0,0.0,88,0.00,,,0.58,Wunderground v.1.15,2013-07-06 11:08:00,
2013-07-06 07:09:00,64.6,63.7,30.12,ESE,123,0.0,0.0,97,0.07,,,0.52,Wunderground v.1.15,2013-07-06 11:09:00,
2013-07-06 07:10:00,64.6,63.7,30.12,ESE,123,0.0,0.0,97,0.07,,,0.52,Wunderground v.1.15,2013-07-06 11:10:00,
2013-07-06 07:11:00,72.5,69.1,30.10,SW,223,0.0,0.0,89,0.00,,,0.58,Wunderground v.1.15,2013-07-06 11:11:00,
2013-07-06 07:12:00,72.5,69.1,30.10,SW,223,0.0,0.0,89,0.00,,,0.58,Wunderground v.1.15,2013-07-06 11:12:00,
2013-07-06 07:13:00,64.6,63.7,30.13,ESE,123,0.0,0.0,97,0.06,,,0.53,Wunderground v.1.15,2013-07-06 11:13:00,
2013-07-06 07:14:00,64.6,63.7,30.13,ESE,123,0.0,0.0,97,0.06,,,0.53,Wunderground v.1.15,2013-07-06 11:14:00,
2013-07-06 07:16:00,64.7,63.8,30.13,ESE,123,0.0,0.0,97,0.06,,,0.53,Wunderground v.1.15,2013-07-06 11:16:00,
2013-07-06 07:17:00,72.6,69.2,30.10,SW,223,0.0,0.0,89,0.00,,,0.58,Wunderground v.1.15,2013-07-06 11:17:00,
2013-07-06 07:18:00,64.7,63.8,30.13,ESE,123,0.0,0.0,97,0.06,,,0.53,Wunderground v.1.15,2013-07-06 11:18:00,
2013-07-06 07:19:00,72.6,69.5,30.10,SW,223,0.0,0.0,90,0.00,,,0.58,Wunderground v.1.15,2013-07-06 11:19:00,
2013-07-06 07:20:00,64.7,63.8,30.13,ESE,123,0.0,0.0,97,0.12,,,0.54,Wunderground v.1.15,2013-07-06 11:20:00,
2013-07-06 07:21:00,72.5,68.7,30.10,SW,223,0.0,0.0,88,0.00,,,0.58,Wunderground v.1.15,2013-07-06 11:21:00,
2013-07-06 07:22:00,72.4,68.6,30.10,SW,223,0.0,0.0,88,0.00,,,0.58,Wunderground v.1.15,2013-07-06 11:22:00,
2013-07-06 07:24:00,64.8,63.9,30.12,ESE,123,0.0,0.0,97,0.11,,,0.54,Wunderground v.1.15,2013-07-06 11:24:00,
2013-07-06 07:25:00,72.3,68.9,30.10,SW,223,0.0,0.0,89,0.00,,,0.58,Wunderground v.1.15,2013-07-06 11:25:00,
2013-07-06 07:26:00,64.8,63.9,30.12,ESE,123,0.0,0.0,97,0.08,,,0.54,Wunderground v.1.15,2013-07-06 11:26:00,
2013-07-06 07:27:00,64.8,63.9,30.12,ESE,123,0.0,0.0,97,0.06,,,0.54,Wunderground v.1.15,2013-07-06 11:27:00,
2013-07-06 07:28:00,72.4,69.0,30.10,SW,223,0.0,0.0,89,0.00,,,0.58,Wunderground v.1.15,2013-07-06 11:28:00,
2013-07-06 07:29:00,64.8,63.9,30.12,ESE,123,0.0,0.0,97,0.05,,,0.54,Wunderground v.1.15,2013-07-06 11:29:00,
2013-07-06 07:31:00,64.8,63.9,30.12,ESE,123,0.0,0.0,97,0.05,,,0.55,Wunderground v.1.15,2013-07-06 11:31:00,
2013-07-06 07:32:00,72.3,69.2,30.10,SW,223,0.0,0.0,90,0.00,,,0.58,Wunderground v.1.15,2013-07-06 11:32:00,
2013-07-06 07:33:00,72.3,68.9,30.09,SW,223,0.0,0.0,89,0.00,,,0.58,Wunderground v.1.15,2013-07-06 11:33:00,
2013-07-06 07:34:00,64.8,63.9,30.13,ESE,123,0.0,0.0,97,0.05,,,0.55,Wunderground v.1.15,2013-07-06 11:34:00,
2013-07-06 07:35:00,72.3,68.9,30.09,SW,223,0.0,0.0,89,0.00,,,0.58,Wunderground v.1.15,2013-07-06 11:35:00,
2013-07-06 07:36:00,64.8,63.9,30.13,ESE,123,0.0,0.0,97,0.05,,,0.55,Wunderground v.1.15,2013-07-06 11:36:00,
2013-07-06 07:37:00,64.8,63.9,30.13,ESE,123,0.0,0.0,97,0.05,,,0.55,Wunderground v.1.15,2013-07-06 11:37:00,
2013-07-06 07:38:00,64.7,63.8,30.13,ESE,123,0.0,0.0,97,0.05,,,0.55,Wunderground v.1.15,2013-07-06 11:38:00,
2013-07-06 07:39:00,64.7,63.8,30.13,ESE,123,0.0,0.0,97,0.05,,,0.55,Wunderground v.1.15,2013-07-06 11:39:00,
2013-07-06 07:41:00,64.7,63.8,30.14,ESE,123,0.0,0.0,97,0.05,,,0.56,Wunderground v.1.15,2013-07-06 11:41:00,
2013-07-06 07:42:00,64.7,63.8,30.14,ESE,123,0.0,0.0,97,0.05,,,0.56,Wunderground v.1.15,2013-07-06 11:42:00,
2013-07-06 07:43:00,72.5,69.4,30.10,SW,223,0.0,0.0,90,0.00,,,0.58,Wunderground v.1.15,2013-07-06 11:43:00,
2013-07-06 07:44:00,72.5,69.4,30.10,SW,223,0.0,0.0,90,0.00,,,0.58,Wunderground v.1.15,2013-07-06 11:44:00,
2013-07-06 07:45:00,64.7,63.8,30.14,ESE,123,0.0,0.0,97,0.05,,,0.56,Wunderground v.1.15,2013-07-06 11:45:00,
2013-07-06 07:46:00,72.5,69.4,30.10,SW,223,0.0,0.0,90,0.00,,,0.58,Wunderground v.1.15,2013-07-06 11:46:00,
2013-07-06 07:47:00,72.5,69.4,30.10,SW,223,0.0,0.0,90,0.00,,,0.58,Wunderground v.1.15,2013-07-06 11:47:00,
2013-07-06 07:48:00,64.7,63.8,30.14,South,175,0.0,0.0,97,0.05,,,0.56,Wunderground v.1.15,2013-07-06 11:48:00,
2013-07-06 07:49:00,72.5,69.4,30.10,SW,223,0.0,0.0,90,0.00,,,0.58,Wunderground v.1.15,2013-07-06 11:49:00,
2013-07-06 07:50:00,72.6,69.2,30.10,SW,223,0.0,0.0,89,0.00,,,0.58,Wunderground v.1.15,2013-07-06 11:50:00,
2013-07-06 07:51:00,64.7,63.8,30.14,South,175,0.0,0.0,97,0.05,,,0.56,Wunderground v.1.15,2013-07-06 11:51:00,
2013-07-06 07:52:00,64.7,63.8,30.14,South,175,0.0,0.0,97,0.05,,,0.56,Wunderground v.1.15,2013-07-06 11:52:00,
2013-07-06 07:55:00,72.8,69.4,30.09,SW,223,0.0,0.0,89,0.00,,,0.58,Wunderground v.1.15,2013-07-06 11:55:00,
2013-07-06 07:56:00,64.7,63.8,30.14,South,175,0.0,0.0,97,0.04,,,0.56,Wunderground v.1.15,2013-07-06 11:56:00,
2013-07-06 07:58:00,64.7,63.8,30.14,South,175,0.0,0.0,97,0.04,,,0.56,Wunderground v.1.15,2013-07-06 11:58:00,
2013-07-06 07:59:00,73.0,69.2,30.10,SW,223,0.0,0.0,88,0.00,,,0.58,Wunderground v.1.15,2013-07-06 11:59:00,
2013-07-06 08:00:00,64.7,63.8,30.14,South,175,0.0,0.0,97,0.00,,,0.56,Wunderground v.1.15,2013-07-06 12:00:00,
2013-07-06 08:01:00,73.2,69.8,30.10,SW,223,0.0,0.0,89,0.00,,,0.58,Wunderground v.1.15,2013-07-06 12:01:00,
2013-07-06 08:02:00,73.2,69.4,30.10,SW,223,0.0,0.0,88,0.00,,,0.58,Wunderground v.1.15,2013-07-06 12:02:00,
2013-07-06 08:03:00,64.7,63.8,30.14,South,175,0.0,0.0,97,0.00,,,0.56,Wunderground v.1.15,2013-07-06 12:03:00,
2013-07-06 08:04:00,73.2,68.8,30.10,SW,223,0.0,0.0,86,0.00,,,0.58,Wunderground v.1.15,2013-07-06 12:04:00,
2013-07-06 08:05:00,73.3,68.9,30.10,SW,223,0.0,0.0,86,0.00,,,0.58,Wunderground v.1.15,2013-07-06 12:05:00,
2013-07-06 08:06:00,73.3,68.9,30.10,SW,223,0.0,0.0,86,0.00,,,0.58,Wunderground v.1.15,2013-07-06 12:06:00,
2013-07-06 08:07:00,73.3,68.9,30.10,SW,223,0.0,0.0,86,0.00,,,0.58,Wunderground v.1.15,2013-07-06 12:07:00,
2013-07-06 08:08:00,64.7,63.8,30.14,South,175,0.0,0.0,97,0.00,,,0.56,Wunderground v.1.15,2013-07-06 12:08:00,
2013-07-06 08:09:00,73.5,69.1,30.09,SW,223,0.0,0.0,86,0.00,,,0.58,Wunderground v.1.15,2013-07-06 12:09:00,
2013-07-06 08:10:00,73.5,69.1,30.09,SW,223,0.0,0.0,86,0.00,,,0.58,Wunderground v.1.15,2013-07-06 12:10:00,
2013-07-06 08:11:00,73.6,68.8,30.09,SW,223,0.0,0.0,85,0.00,,,0.58,Wunderground v.1.15,2013-07-06 12:11:00,
2013-07-06 08:12:00,64.7,63.8,30.14,South,175,0.0,0.0,97,0.00,,,0.56,Wunderground v.1.15,2013-07-06 12:12:00,
2013-07-06 08:13:00,64.7,63.8,30.14,South,175,0.0,0.0,97,0.00,,,0.56,Wunderground v.1.15,2013-07-06 12:13:00,
2013-07-06 08:14:00,73.7,68.9,30.09,SW,223,0.0,0.0,85,0.00,,,0.58,Wunderground v.1.15,2013-07-06 12:14:00,
2013-07-06 08:15:00,64.7,63.8,30.13,South,175,0.0,0.0,97,0.00,,,0.56,Wunderground v.1.15,2013-07-06 12:15:00,
2013-07-06 08:16:00,64.7,63.8,30.13,South,175,0.0,0.0,97,0.00,,,0.56,Wunderground v.1.15,2013-07-06 12:16:00,
2013-07-06 08:18:00,73.7,68.6,30.10,SW,223,0.0,0.0,84,0.00,,,0.58,Wunderground v.1.15,2013-07-06 12:18:00,
2013-07-06 08:19:00,64.7,63.8,30.13,South,175,0.0,0.0,97,0.00,,,0.56,Wunderground v.1.15,2013-07-06 12:19:00,
2013-07-06 08:20:00,73.6,68.8,30.10,SW,223,0.0,0.0,85,0.00,,,0.58,Wunderground v.1.15,2013-07-06 12:20:00,
2013-07-06 08:21:00,64.7,63.8,30.13,South,175,0.0,0.0,97,0.00,,,0.56,Wunderground v.1.15,2013-07-06 12:21:00,
2013-07-06 08:24:00,64.7,63.8,30.13,South,175,0.0,0.0,97,0.00,,,0.56,Wunderground v.1.15,2013-07-06 12:24:00,
2013-07-06 08:25:00,73.4,68.6,30.10,SW,223,0.0,0.0,85,0.00,,,0.58,Wunderground v.1.15,2013-07-06 12:25:00,
2013-07-06 08:26:00,64.7,63.8,30.13,South,175,0.0,0.0,97,0.00,,,0.56,Wunderground v.1.15,2013-07-06 12:26:00,
2013-07-06 08:27:00,64.7,63.8,30.13,South,175,0.0,0.0,97,0.00,,,0.56,Wunderground v.1.15,2013-07-06 12:27:00,
2013-07-06 08:28:00,73.3,68.9,30.10,SW,223,0.0,0.0,86,0.00,,,0.58,Wunderground v.1.15,2013-07-06 12:28:00,
2013-07-06 08:29:00,64.7,63.8,30.13,South,175,0.0,0.0,97,0.00,,,0.56,Wunderground v.1.15,2013-07-06 12:29:00,
2013-07-06 08:30:00,73.2,68.8,30.10,SW,223,0.0,0.0,86,0.00,,,0.58,Wunderground v.1.15,2013-07-06 12:30:00,
2013-07-06 08:31:00,73.1,68.3,30.10,SW,223,0.0,0.0,85,0.00,,,0.58,Wunderground v.1.15,2013-07-06 12:31:00,
2013-07-06 08:32:00,64.7,63.8,30.13,South,175,0.0,0.0,97,0.00,,,0.56,Wunderground v.1.15,2013-07-06 12:32:00,
2013-07-06 08:33:00,73.0,67.9,30.10,SW,223,0.0,0.0,84,0.00,,,0.58,Wunderground v.1.15,2013-07-06 12:33:00,
2013-07-06 08:34:00,72.9,67.4,30.10,SW,223,0.0,0.0,83,0.00,,,0.58,Wunderground v.1.15,2013-07-06 12:34:00,
2013-07-06 08:35:00,64.7,63.8,30.13,South,175,0.0,0.0,97,0.00,,,0.56,Wunderground v.1.15,2013-07-06 12:35:00,
2013-07-06 08:36:00,72.9,68.1,30.09,SW,223,0.0,0.0,85,0.00,,,0.58,Wunderground v.1.15,2013-07-06 12:36:00,
2013-07-06 08:37:00,72.9,67.8,30.10,SW,223,0.0,0.0,84,0.00,,,0.58,Wunderground v.1.15,2013-07-06 12:37:00,
2013-07-06 08:38:00,64.6,63.7,30.13,South,175,0.0,0.0,97,0.00,,,0.56,Wunderground v.1.15,2013-07-06 12:38:00,
2013-07-06 08:39:00,72.8,67.3,30.10,SW,221,0.0,0.0,83,0.00,,,0.58,Wunderground v.1.15,2013-07-06 12:39:00,
2013-07-06 08:40:00,64.6,63.7,30.12,South,175,0.0,0.0,97,0.00,,,0.56,Wunderground v.1.15,2013-07-06 12:40:00,
2013-07-06 08:41:00,64.6,63.7,30.12,South,175,0.0,0.0,97,0.00,,,0.56,Wunderground v.1.15,2013-07-06 12:41:00,
2013-07-06 08:42:00,72.8,68.0,30.09,SW,221,0.0,0.0,85,0.00,,,0.58,Wunderground v.1.15,2013-07-06 12:42:00,
2013-07-06 08:43:00,64.6,63.7,30.12,South,175,0.0,0.0,97,0.00,,,0.56,Wunderground v.1.15,2013-07-06 12:43:00,
2013-07-06 08:44:00,64.6,63.7,30.12,South,175,0.0,0.0,97,0.00,,,0.56,Wunderground v.1.15,2013-07-06 12:44:00,
2013-07-06 08:45:00,72.8,68.0,30.09,SW,221,0.0,0.0,85,0.00,,,0.58,Wunderground v.1.15,2013-07-06 12:45:00,
2013-07-06 08:46:00,72.8,68.0,30.09,SW,221,0.0,0.0,85,0.00,,,0.58,Wunderground v.1.15,2013-07-06 12:46:00,
2013-07-06 08:47:00,72.8,68.0,30.09,SW,221,0.0,0.0,85,0.00,,,0.58,Wunderground v.1.15,2013-07-06 12:47:00,
2013-07-06 08:48:00,64.6,63.7,30.12,South,175,0.0,0.0,97,0.00,,,0.56,Wunderground v.1.15,2013-07-06 12:48:00,
2013-07-06 08:49:00,64.6,63.7,30.12,South,175,0.0,0.0,97,0.00,,,0.56,Wunderground v.1.15,2013-07-06 12:49:00,
2013-07-06 08:50:00,64.6,63.7,30.12,South,175,0.0,0.0,97,0.00,,,0.56,Wunderground v.1.15,2013-07-06 12:50:00,
2013-07-06 08:51:00,72.8,68.0,30.10,SW,221,0.0,0.0,85,0.00,,,0.58,Wunderground v.1.15,2013-07-06 12:51:00,
2013-07-06 08:52:00,72.9,68.1,30.10,SW,221,0.0,0.0,85,0.00,,,0.58,Wunderground v.1.15,2013-07-06 12:52:00,
2013-07-06 08:53:00,72.9,68.1,30.10,SW,221,0.0,0.0,85,0.00,,,0.58,Wunderground v.1.15,2013-07-06 12:53:00,
2013-07-06 08:54:00,72.9,68.1,30.10,SW,221,0.0,0.0,85,0.00,,,0.58,Wunderground v.1.15,2013-07-06 12:54:00,
2013-07-06 08:55:00,72.9,68.1,30.10,SW,221,0.0,0.0,85,0.00,,,0.58,Wunderground v.1.15,2013-07-06 12:55:00,
2013-07-06 08:56:00,72.9,68.1,30.10,SW,221,0.0,0.0,85,0.00,,,0.58,Wunderground v.1.15,2013-07-06 12:56:00,
2013-07-06 08:57:00,73.0,68.2,30.10,SW,221,0.0,0.0,85,0.00,,,0.58,Wunderground v.1.15,2013-07-06 12:57:00,
2013-07-06 08:58:00,64.8,63.9,30.12,South,175,0.0,0.0,97,0.00,,,0.57,Wunderground v.1.15,2013-07-06 12:58:00,
2013-07-06 08:59:00,73.0,68.2,30.10,SW,221,0.0,0.0,85,0.00,,,0.58,Wunderground v.1.15,2013-07-06 12:59:00,
2013-07-06 09:00:00,64.8,63.9,30.12,South,175,0.0,0.0,97,0.00,,,0.57,Wunderground v.1.15,2013-07-06 13:00:00,
2013-07-06 09:01:00,73.0,68.2,30.10,SW,221,0.0,0.0,85,0.00,,,0.58,Wunderground v.1.15,2013-07-06 13:01:00,
2013-07-06 09:02:00,73.0,67.9,30.10,SW,221,0.0,0.0,84,0.00,,,0.58,Wunderground v.1.15,2013-07-06 13:02:00,
2013-07-06 09:03:00,73.1,68.3,30.10,SW,221,0.0,0.0,85,0.00,,,0.58,Wunderground v.1.15,2013-07-06 13:03:00,
2013-07-06 09:04:00,73.2,68.4,30.10,SW,221,0.0,0.0,85,0.00,,,0.58,Wunderground v.1.15,2013-07-06 13:04:00,
2013-07-06 09:05:00,64.7,63.8,30.12,South,175,0.0,0.0,97,0.00,,,0.57,Wunderground v.1.15,2013-07-06 13:05:00,
2013-07-06 09:06:00,73.2,68.4,30.10,SW,221,0.0,0.0,85,0.00,,,0.58,Wunderground v.1.15,2013-07-06 13:06:00,
2013-07-06 09:07:00,73.2,68.4,30.10,SW,221,0.0,0.0,85,0.00,,,0.58,Wunderground v.1.15,2013-07-06 13:07:00,
2013-07-06 09:08:00,64.7,63.8,30.12,South,175,0.0,0.0,97,0.00,,,0.57,Wunderground v.1.15,2013-07-06 13:08:00,
2013-07-06 09:09:00,73.2,68.4,30.10,SW,221,0.0,0.0,85,0.00,,,0.58,Wunderground v.1.15,2013-07-06 13:09:00,
2013-07-06 09:10:00,64.8,63.9,30.12,South,175,0.0,0.0,97,0.00,,,0.57,Wunderground v.1.15,2013-07-06 13:10:00,
2013-07-06 09:11:00,64.9,64.0,30.12,South,175,0.0,0.0,97,0.00,,,0.57,Wunderground v.1.15,2013-07-06 13:11:00,
2013-07-06 09:12:00,73.2,68.4,30.10,SW,221,0.0,0.0,85,0.00,,,0.58,Wunderground v.1.15,2013-07-06 13:12:00,
2013-07-06 09:14:00,64.9,64.0,30.12,South,175,0.0,0.0,97,0.00,,,0.57,Wunderground v.1.15,2013-07-06 13:14:00,
2013-07-06 09:15:00,64.9,64.0,30.12,South,175,0.0,0.0,97,0.00,,,0.57,Wunderground v.1.15,2013-07-06 13:15:00,
2013-07-06 09:17:00,73.1,68.3,30.10,SW,221,0.0,0.0,85,0.00,,,0.58,Wunderground v.1.15,2013-07-06 13:17:00,
2013-07-06 09:18:00,64.9,64.0,30.12,South,175,0.0,0.0,97,0.00,,,0.57,Wunderground v.1.15,2013-07-06 13:18:00,
2013-07-06 09:19:00,73.0,68.2,30.10,SW,221,0.0,0.0,85,0.00,,,0.58,Wunderground v.1.15,2013-07-06 13:19:00,
2013-07-06 09:20:00,64.9,64.0,30.12,South,175,0.0,0.0,97,0.00,,,0.58,Wunderground v.1.15,2013-07-06 13:20:00,
2013-07-06 09:21:00,72.9,68.1,30.10,SW,221,0.0,0.0,85,0.00,,,0.58,Wunderground v.1.15,2013-07-06 13:21:00,
2013-07-06 09:22:00,65.0,64.1,30.12,South,175,0.0,0.0,97,0.00,,,0.58,Wunderground v.1.15,2013-07-06 13:22:00,
2013-07-06 09:23:00,72.8,68.4,30.10,SW,221,0.0,0.0,86,0.00,,,0.58,Wunderground v.1.15,2013-07-06 13:23:00,
2013-07-06 09:25:00,65.0,64.1,30.12,South,175,0.0,0.0,97,0.00,,,0.58,Wunderground v.1.15,2013-07-06 13:25:00,
2013-07-06 09:27:00,72.5,68.1,30.10,SW,221,0.0,0.0,86,0.00,,,0.58,Wunderground v.1.15,2013-07-06 13:27:00,
2013-07-06 09:29:00,65.2,64.3,30.13,South,175,0.0,0.0,97,0.00,,,0.58,Wunderground v.1.15,2013-07-06 13:29:00,
2013-07-06 09:30:00,65.3,64.4,30.13,South,175,0.0,0.0,97,0.00,,,0.58,Wunderground v.1.15,2013-07-06 13:30:00,
2013-07-06 09:32:00,65.3,64.4,30.13,South,175,0.0,0.0,97,0.00,,,0.58,Wunderground v.1.15,2013-07-06 13:32:00,
2013-07-06 09:33:00,65.3,64.4,30.13,South,175,0.0,0.0,97,0.00,,,0.58,Wunderground v.1.15,2013-07-06 13:33:00,
2013-07-06 09:34:00,72.2,68.4,30.10,SW,221,0.0,0.0,88,0.00,,,0.58,Wunderground v.1.15,2013-07-06 13:34:00,
2013-07-06 09:35:00,72.1,68.3,30.11,SW,221,0.0,0.0,88,0.00,,,0.58,Wunderground v.1.15,2013-07-06 13:35:00,
2013-07-06 09:36:00,65.2,64.3,30.13,South,175,0.0,0.0,97,0.00,,,0.58,Wunderground v.1.15,2013-07-06 13:36:00,
2013-07-06 09:37:00,72.0,68.2,30.10,SW,221,0.0,0.0,88,0.00,,,0.58,Wunderground v.1.15,2013-07-06 13:37:00,
2013-07-06 09:38:00,65.2,64.3,30.13,South,175,0.0,0.0,97,0.00,,,0.58,Wunderground v.1.15,2013-07-06 13:38:00,
2013-07-06 09:39:00,71.9,68.2,30.10,SW,221,0.0,0.0,88,0.00,,,0.58,Wunderground v.1.15,2013-07-06 13:39:00,
2013-07-06 09:40:00,65.2,64.3,30.13,South,175,0.0,0.0,97,0.00,,,0.58,Wunderground v.1.15,2013-07-06 13:40:00,
2013-07-06 09:41:00,65.2,64.3,30.13,South,175,0.0,0.0,97,0.00,,,0.58,Wunderground v.1.15,2013-07-06 13:41:00,
2013-07-06 09:42:00,65.1,64.2,30.13,South,175,0.0,0.0,97,0.00,,,0.58,Wunderground v.1.15,2013-07-06 13:42:00,
2013-07-06 09:43:00,71.6,67.9,30.11,SW,221,0.0,0.0,88,0.00,,,0.58,Wunderground v.1.15,2013-07-06 13:43:00,
2013-07-06 09:44:00,71.6,67.9,30.11,SW,221,0.0,0.0,88,0.00,,,0.58,Wunderground v.1.15,2013-07-06 13:44:00,
2013-07-06 09:45:00,71.5,67.8,30.11,SW,221,0.0,0.0,88,0.00,,,0.58,Wunderground v.1.15,2013-07-06 13:45:00,
2013-07-06 09:46:00,65.2,64.3,30.13,South,175,0.0,0.0,97,0.00,,,0.58,Wunderground v.1.15,2013-07-06 13:46:00,
2013-07-06 09:47:00,71.4,67.7,30.11,SW,221,0.0,0.0,88,0.00,,,0.58,Wunderground v.1.15,2013-07-06 13:47:00,
2013-07-06 09:48:00,65.2,64.3,30.13,South,175,0.0,0.0,97,0.00,,,0.58,Wunderground v.1.15,2013-07-06 13:48:00,
2013-07-06 09:49:00,65.3,64.4,30.13,South,175,0.0,0.0,97,0.00,,,0.58,Wunderground v.1.15,2013-07-06 13:49:00,
2013-07-06 09:50:00,71.3,67.9,30.11,SW,221,0.0,0.0,89,0.00,,,0.58,Wunderground v.1.15,2013-07-06 13:50:00,
2013-07-06 09:51:00,71.2,67.8,30.11,SW,221,0.0,0.0,89,0.00,,,0.58,Wunderground v.1.15,2013-07-06 13:51:00,
2013-07-06 09:53:00,65.4,64.5,30.13,South,175,0.0,0.0,97,0.00,,,0.58,Wunderground v.1.15,2013-07-06 13:53:00,
2013-07-06 09:54:00,71.1,67.7,30.11,SW,221,0.0,0.0,89,0.00,,,0.58,Wunderground v.1.15,2013-07-06 13:54:00,
2013-07-06 09:55:00,65.4,64.5,30.13,South,175,0.0,0.0,97,0.00,,,0.58,Wunderground v.1.15,2013-07-06 13:55:00,
2013-07-06 09:56:00,71.0,67.6,30.11,ESE,117,0.0,0.0,89,0.00,,,0.58,Wunderground v.1.15,2013-07-06 13:56:00,
2013-07-06 09:57:00,70.9,67.5,30.11,ESE,117,0.0,0.0,89,0.00,,,0.58,Wunderground v.1.15,2013-07-06 13:57:00,
2013-07-06 09:58:00,70.8,67.4,30.11,ESE,117,0.0,0.0,89,0.00,,,0.58,Wunderground v.1.15,2013-07-06 13:58:00,
2013-07-06 09:59:00,70.7,67.3,30.11,ESE,117,0.0,0.0,89,0.00,,,0.58,Wunderground v.1.15,2013-07-06 13:59:00,
2013-07-06 10:00:00,65.5,64.6,30.13,South,175,0.0,0.0,97,0.00,,,0.58,Wunderground v.1.15,2013-07-06 14:00:00,
2013-07-06 10:01:00,65.6,64.7,30.13,South,175,0.0,0.0,97,0.00,,,0.58,Wunderground v.1.15,2013-07-06 14:01:00,
2013-07-06 10:02:00,65.6,64.7,30.13,South,175,0.0,0.0,97,0.00,,,0.58,Wunderground v.1.15,2013-07-06 14:02:00,
2013-07-06 10:03:00,70.5,67.4,30.11,East,92,0.0,0.0,90,0.00,,,0.58,Wunderground v.1.15,2013-07-06 14:03:00,
2013-07-06 10:04:00,65.7,64.8,30.13,South,175,0.0,0.0,97,0.00,,,0.58,Wunderground v.1.15,2013-07-06 14:04:00,
2013-07-06 10:05:00,65.7,64.8,30.13,South,175,0.0,0.0,97,0.00,,,0.58,Wunderground v.1.15,2013-07-06 14:05:00,
2013-07-06 10:06:00,70.4,67.3,30.11,East,92,0.0,0.0,90,0.00,,,0.58,Wunderground v.1.15,2013-07-06 14:06:00,
2013-07-06 10:07:00,70.3,67.2,30.11,East,92,0.0,0.0,90,0.00,,,0.58,Wunderground v.1.15,2013-07-06 14:07:00,
2013-07-06 10:08:00,65.7,64.8,30.13,South,175,0.0,0.0,97,0.00,,,0.58,Wunderground v.1.15,2013-07-06 14:08:00,
2013-07-06 10:09:00,65.7,64.8,30.13,South,175,0.0,0.0,97,0.00,,,0.58,Wunderground v.1.15,2013-07-06 14:09:00,
2013-07-06 10:10:00,65.7,64.8,30.13,South,175,0.0,1.0,97,0.00,,,0.58,Wunderground v.1.15,2013-07-06 14:10:00,
2013-07-06 10:11:00,65.8,64.9,30.13,South,175,0.0,1.0,97,0.00,,,0.58,Wunderground v.1.15,2013-07-06 14:11:00,
2013-07-06 10:12:00,70.1,67.3,30.11,East,92,0.0,0.0,91,0.00,,,0.58,Wunderground v.1.15,2013-07-06 14:12:00,
2013-07-06 10:13:00,70.0,67.3,30.11,East,92,0.0,0.0,91,0.00,,,0.58,Wunderground v.1.15,2013-07-06 14:13:00,
2013-07-06 10:14:00,70.0,67.3,30.11,East,92,0.0,0.0,91,0.00,,,0.58,Wunderground v.1.15,2013-07-06 14:14:00,
2013-07-06 10:15:00,69.9,67.2,30.11,East,92,0.0,0.0,91,0.00,,,0.58,Wunderground v.1.15,2013-07-06 14:15:00,
2013-07-06 10:16:00,65.9,65.0,30.13,South,175,0.0,1.0,97,0.00,,,0.58,Wunderground v.1.15,2013-07-06 14:16:00,
2013-07-06 10:17:00,66.0,65.1,30.13,South,175,0.0,1.0,97,0.00,,,0.58,Wunderground v.1.15,2013-07-06 14:17:00,
2013-07-06 10:18:00,69.8,67.1,30.12,East,92,0.0,0.0,91,0.00,,,0.58,Wunderground v.1.15,2013-07-06 14:18:00,
2013-07-06 10:19:00,69.7,67.0,30.12,East,92,0.0,0.0,91,0.00,,,0.58,Wunderground v.1.15,2013-07-06 14:19:00,
2013-07-06 10:20:00,66.0,65.1,30.13,South,175,0.0,0.0,97,0.00,,,0.58,Wunderground v.1.15,2013-07-06 14:20:00,
2013-07-06 10:21:00,69.7,67.0,30.12,East,92,0.0,0.0,91,0.00,,,0.58,Wunderground v.1.15,2013-07-06 14:21:00,
2013-07-06 10:22:00,65.9,65.0,30.13,South,175,0.0,0.0,97,0.00,,,0.58,Wunderground v.1.15,2013-07-06 14:22:00,
2013-07-06 10:23:00,65.9,65.0,30.13,South,175,0.0,0.0,97,0.00,,,0.58,Wunderground v.1.15,2013-07-06 14:23:00,
2013-07-06 10:24:00,66.0,65.1,30.13,South,175,0.0,0.0,97,0.00,,,0.58,Wunderground v.1.15,2013-07-06 14:24:00,
2013-07-06 10:25:00,69.5,67.1,30.12,East,92,0.0,0.0,92,0.00,,,0.58,Wunderground v.1.15,2013-07-06 14:25:00,
2013-07-06 10:26:00,69.4,67.0,30.12,East,92,0.0,0.0,92,0.00,,,0.58,Wunderground v.1.15,2013-07-06 14:26:00,
2013-07-06 10:27:00,66.0,65.1,30.14,South,175,0.0,0.0,97,0.00,,,0.58,Wunderground v.1.15,2013-07-06 14:27:00,
2013-07-06 10:28:00,69.4,67.0,30.12,East,92,0.0,0.0,92,0.00,,,0.58,Wunderground v.1.15,2013-07-06 14:28:00,
2013-07-06 10:29:00,65.9,65.0,30.14,SW,220,0.0,0.0,97,0.00,,,0.58,Wunderground v.1.15,2013-07-06 14:29:00,
2013-07-06 10:30:00,65.8,64.9,30.14,WSW,257,0.0,1.0,97,0.00,,,0.58,Wunderground v.1.15,2013-07-06 14:30:00,
2013-07-06 10:31:00,69.2,66.8,30.12,East,92,0.0,0.0,92,0.00,,,0.58,Wunderground v.1.15,2013-07-06 14:31:00,
2013-07-06 10:32:00,65.7,64.8,30.14,WSW,257,0.0,1.0,97,0.00,,,0.58,Wunderground v.1.15,2013-07-06 14:32:00,
2013-07-06 10:33:00,65.7,64.8,30.14,WSW,257,0.0,1.0,97,0.00,,,0.58,Wunderground v.1.15,2013-07-06 14:33:00,
2013-07-06 10:34:00,69.1,66.7,30.12,East,92,0.0,0.0,92,0.00,,,0.58,Wunderground v.1.15,2013-07-06 14:34:00,
2013-07-06 10:35:00,69.1,66.7,30.12,East,92,0.0,0.0,92,0.00,,,0.58,Wunderground v.1.15,2013-07-06 14:35:00,
2013-07-06 10:36:00,65.7,64.8,30.14,WSW,257,0.0,1.0,97,0.00,,,0.58,Wunderground v.1.15,2013-07-06 14:36:00,
2013-07-06 10:37:00,69.0,66.6,30.12,East,92,0.0,0.0,92,0.00,,,0.58,Wunderground v.1.15,2013-07-06 14:37:00,
2013-07-06 10:38:00,69.0,66.6,30.12,East,92,0.0,0.0,92,0.00,,,0.58,Wunderground v.1.15,2013-07-06 14:38:00,
2013-07-06 10:39:00,65.8,64.9,30.14,WSW,246,0.0,1.0,97,0.00,,,0.58,Wunderground v.1.15,2013-07-06 14:39:00,
2013-07-06 10:41:00,65.8,64.9,30.14,WSW,246,0.0,0.0,97,0.00,,,0.58,Wunderground v.1.15,2013-07-06 14:41:00,
2013-07-06 10:42:00,65.8,64.9,30.14,WSW,246,0.0,0.0,97,0.00,,,0.58,Wunderground v.1.15,2013-07-06 14:42:00,
2013-07-06 10:43:00,68.8,66.7,30.12,ESE,115,0.0,0.0,93,0.00,,,0.58,Wunderground v.1.15,2013-07-06 14:43:00,
2013-07-06 10:44:00,68.7,66.6,30.13,ESE,115,0.0,0.0,93,0.00,,,0.58,Wunderground v.1.15,2013-07-06 14:44:00,
2013-07-06 10:47:00,65.9,65.0,30.14,South,171,0.0,0.0,97,0.00,,,0.58,Wunderground v.1.15,2013-07-06 14:47:00,
2013-07-06 10:48:00,65.9,65.0,30.14,South,178,0.0,0.0,97,0.00,,,0.58,Wunderground v.1.15,2013-07-06 14:48:00,
2013-07-06 10:49:00,68.5,66.4,30.13,ESE,115,0.0,0.0,93,0.00,,,0.58,Wunderground v.1.15,2013-07-06 14:49:00,
2013-07-06 10:50:00,65.9,65.0,30.14,South,178,0.0,0.0,97,0.00,,,0.58,Wunderground v.1.15,2013-07-06 14:50:00,
2013-07-06 10:51:00,68.5,66.4,30.13,ESE,115,0.0,0.0,93,0.00,,,0.58,Wunderground v.1.15,2013-07-06 14:51:00,
2013-07-06 10:52:00,68.4,66.3,30.13,ESE,115,0.0,0.0,93,0.00,,,0.58,Wunderground v.1.15,2013-07-06 14:52:00,
2013-07-06 10:53:00,68.4,66.3,30.13,ESE,115,0.0,0.0,93,0.00,,,0.58,Wunderground v.1.15,2013-07-06 14:53:00,
2013-07-06 10:54:00,66.1,65.2,30.13,South,179,0.0,0.0,97,0.00,,,0.58,Wunderground v.1.15,2013-07-06 14:54:00,
2013-07-06 10:55:00,66.1,65.2,30.14,South,179,0.0,0.0,97,0.00,,,0.58,Wunderground v.1.15,2013-07-06 14:55:00,
2013-07-06 10:56:00,68.3,66.2,30.13,ESE,115,0.0,0.0,93,0.00,,,0.58,Wunderground v.1.15,2013-07-06 14:56:00,
2013-07-06 10:58:00,66.2,65.3,30.14,South,179,0.0,0.0,97,0.00,,,0.58,Wunderground v.1.15,2013-07-06 14:58:00,
2013-07-06 11:00:00,66.4,65.5,30.13,SSW,211,0.0,0.0,97,0.00,,,0.58,Wunderground v.1.15,2013-07-06 15:00:00,
2013-07-06 11:02:00,68.3,66.5,30.13,ESE,115,0.0,0.0,94,0.00,,,0.58,Wunderground v.1.15,2013-07-06 15:02:00,
2013-07-06 11:03:00,66.5,65.6,30.14,SSW,211,0.0,1.0,97,0.00,,,0.58,Wunderground v.1.15,2013-07-06 15:03:00,
2013-07-06 11:04:00,68.2,66.4,30.13,ESE,115,0.0,0.0,94,0.00,,,0.58,Wunderground v.1.15,2013-07-06 15:04:00,
2013-07-06 11:05:00,66.5,65.6,30.13,SSW,211,0.0,1.0,97,0.00,,,0.58,Wunderground v.1.15,2013-07-06 15:05:00,
2013-07-06 11:06:00,68.2,66.4,30.14,ESE,115,0.0,0.0,94,0.00,,,0.58,Wunderground v.1.15,2013-07-06 15:06:00,
2013-07-06 11:07:00,68.2,66.4,30.14,ESE,115,0.0,0.0,94,0.00,,,0.58,Wunderground v.1.15,2013-07-06 15:07:00,
2013-07-06 11:08:00,66.4,65.5,30.13,SSW,211,0.0,1.0,97,0.00,,,0.58,Wunderground v.1.15,2013-07-06 15:08:00,
2013-07-06 11:09:00,68.2,66.4,30.14,ESE,115,0.0,0.0,94,0.00,,,0.58,Wunderground v.1.15,2013-07-06 15:09:00,
2013-07-06 11:10:00,66.4,65.5,30.14,SW,214,0.0,0.0,97,0.00,,,0.58,Wunderground v.1.15,2013-07-06 15:10:00,
2013-07-06 11:11:00,68.1,66.3,30.14,ESE,115,0.0,0.0,94,0.00,,,0.58,Wunderground v.1.15,2013-07-06 15:11:00,
2013-07-06 11:12:00,68.1,66.3,30.14,ESE,115,0.0,0.0,94,0.00,,,0.58,Wunderground v.1.15,2013-07-06 15:12:00,
2013-07-06 11:13:00,66.3,65.4,30.13,SW,214,0.0,1.0,97,0.00,,,0.58,Wunderground v.1.15,2013-07-06 15:13:00,
2013-07-06 11:15:00,66.2,65.3,30.13,WSW,242,0.0,1.0,97,0.00,,,0.58,Wunderground v.1.15,2013-07-06 15:15:00,
2013-07-06 11:16:00,66.2,65.3,30.13,NE,38,0.0,2.0,97,0.00,,,0.58,Wunderground v.1.15,2013-07-06 15:16:00,
2013-07-06 11:17:00,67.9,66.1,30.14,ESE,115,0.0,0.0,94,0.00,,,0.58,Wunderground v.1.15,2013-07-06 15:17:00,
2013-07-06 11:18:00,66.2,65.3,30.13,NE,38,0.0,2.0,97,0.00,,,0.58,Wunderground v.1.15,2013-07-06 15:18:00,
2013-07-06 11:19:00,67.8,66.0,30.14,ESE,115,0.0,0.0,94,0.00,,,0.58,Wunderground v.1.15,2013-07-06 15:19:00,
2013-07-06 11:20:00,67.8,66.0,30.14,ESE,115,0.0,0.0,94,0.00,,,0.58,Wunderground v.1.15,2013-07-06 15:20:00,
2013-07-06 11:21:00,67.8,66.0,30.14,ESE,115,0.0,0.0,94,0.00,,,0.58,Wunderground v.1.15,2013-07-06 15:21:00,
2013-07-06 11:22:00,66.1,64.9,30.14,NNE,19,0.0,1.0,96,0.00,,,0.58,Wunderground v.1.15,2013-07-06 15:22:00,
2013-07-06 11:23:00,66.2,65.0,30.14,NNE,19,0.0,1.0,96,0.00,,,0.58,Wunderground v.1.15,2013-07-06 15:23:00,
2013-07-06 11:24:00,66.3,65.1,30.14,NNE,19,0.0,1.0,96,0.00,,,0.58,Wunderground v.1.15,2013-07-06 15:24:00,
2013-07-06 11:25:00,66.3,65.1,30.14,NNE,19,0.0,1.0,96,0.00,,,0.58,Wunderground v.1.15,2013-07-06 15:25:00,
2013-07-06 11:26:00,67.7,65.9,30.14,ESE,115,0.0,0.0,94,0.00,,,0.58,Wunderground v.1.15,2013-07-06 15:26:00,
2013-07-06 11:27:00,66.4,65.5,30.14,NNE,19,0.0,1.0,97,0.00,,,0.58,Wunderground v.1.15,2013-07-06 15:27:00,
2013-07-06 11:28:00,67.7,65.9,30.14,ESE,115,0.0,0.0,94,0.00,,,0.58,Wunderground v.1.15,2013-07-06 15:28:00,
2013-07-06 11:29:00,67.7,65.9,30.14,ESE,115,0.0,0.0,94,0.00,,,0.58,Wunderground v.1.15,2013-07-06 15:29:00,
2013-07-06 11:30:00,66.4,65.5,30.14,NNE,19,0.0,0.0,97,0.00,,,0.58,Wunderground v.1.15,2013-07-06 15:30:00,
2013-07-06 11:31:00,66.3,65.4,30.14,NNE,19,0.0,0.0,97,0.00,,,0.58,Wunderground v.1.15,2013-07-06 15:31:00,
2013-07-06 11:32:00,66.4,65.5,30.14,NNE,19,0.0,0.0,97,0.00,,,0.58,Wunderground v.1.15,2013-07-06 15:32:00,
2013-07-06 11:33:00,66.4,65.2,30.14,NNE,19,0.0,0.0,96,0.00,,,0.58,Wunderground v.1.15,2013-07-06 15:33:00,
2013-07-06 11:35:00,66.4,65.2,30.14,NNE,19,0.0,0.0,96,0.00,,,0.58,Wunderground v.1.15,2013-07-06 15:35:00,
2013-07-06 11:36:00,67.5,65.7,30.14,ESE,115,0.0,0.0,94,0.00,,,0.58,Wunderground v.1.15,2013-07-06 15:36:00,
2013-07-06 11:37:00,67.5,65.7,30.14,ESE,115,0.0,0.0,94,0.00,,,0.58,Wunderground v.1.15,2013-07-06 15:37:00,
2013-07-06 11:38:00,66.5,65.3,30.14,NNE,19,0.0,0.0,96,0.00,,,0.58,Wunderground v.1.15,2013-07-06 15:38:00,
2013-07-06 11:39:00,66.5,65.3,30.14,NNE,19,0.0,0.0,96,0.00,,,0.58,Wunderground v.1.15,2013-07-06 15:39:00,
2013-07-06 11:40:00,66.5,65.3,30.14,NNE,19,0.0,0.0,96,0.00,,,0.58,Wunderground v.1.15,2013-07-06 15:40:00,
2013-07-06 11:41:00,67.4,65.6,30.14,ESE,115,0.0,0.0,94,0.00,,,0.58,Wunderground v.1.15,2013-07-06 15:41:00,
2013-07-06 11:42:00,67.4,65.6,30.14,ESE,115,0.0,0.0,94,0.00,,,0.58,Wunderground v.1.15,2013-07-06 15:42:00,
2013-07-06 11:43:00,66.6,65.4,30.14,NNE,19,0.0,0.0,96,0.00,,,0.58,Wunderground v.1.15,2013-07-06 15:43:00,
2013-07-06 11:44:00,67.3,65.5,30.14,ESE,115,0.0,0.0,94,0.00,,,0.58,Wunderground v.1.15,2013-07-06 15:44:00,
2013-07-06 11:45:00,67.3,65.5,30.14,ESE,115,0.0,0.0,94,0.00,,,0.58,Wunderground v.1.15,2013-07-06 15:45:00,
2013-07-06 11:46:00,66.7,65.5,30.14,NNE,19,0.0,0.0,96,0.00,,,0.58,Wunderground v.1.15,2013-07-06 15:46:00,
2013-07-06 11:47:00,66.8,65.6,30.14,NNE,19,0.0,0.0,96,0.00,,,0.58,Wunderground v.1.15,2013-07-06 15:47:00,
2013-07-06 11:48:00,66.8,65.6,30.14,NNE,19,0.0,0.0,96,0.00,,,0.58,Wunderground v.1.15,2013-07-06 15:48:00,
2013-07-06 11:49:00,67.2,65.4,30.14,ESE,115,0.0,0.0,94,0.00,,,0.58,Wunderground v.1.15,2013-07-06 15:49:00,
2013-07-06 11:50:00,67.2,65.4,30.14,ESE,115,0.0,0.0,94,0.00,,,0.58,Wunderground v.1.15,2013-07-06 15:50:00,
2013-07-06 11:51:00,67.1,65.3,30.14,ESE,115,0.0,0.0,94,0.00,,,0.58,Wunderground v.1.15,2013-07-06 15:51:00,
2013-07-06 11:52:00,67.1,65.3,30.14,ESE,115,0.0,0.0,94,0.00,,,0.58,Wunderground v.1.15,2013-07-06 15:52:00,
2013-07-06 11:53:00,67.2,66.0,30.14,NNE,19,0.0,0.0,96,0.00,,,0.58,Wunderground v.1.15,2013-07-06 15:53:00,
2013-07-06 11:55:00,67.0,65.2,30.14,ESE,115,0.0,0.0,94,0.00,,,0.58,Wunderground v.1.15,2013-07-06 15:55:00,
2013-07-06 11:56:00,67.2,66.0,30.15,NNE,19,0.0,0.0,96,0.00,,,0.58,Wunderground v.1.15,2013-07-06 15:56:00,
2013-07-06 11:57:00,67.0,65.2,30.14,ESE,115,0.0,0.0,94,0.00,,,0.58,Wunderground v.1.15,2013-07-06 15:57:00,
2013-07-06 11:58:00,67.0,65.2,30.14,ESE,115,0.0,0.0,94,0.00,,,0.58,Wunderground v.1.15,2013-07-06 15:58:00,
2013-07-06 11:59:00,67.2,66.0,30.15,NNE,19,0.0,0.0,96,0.00,,,0.58,Wunderground v.1.15,2013-07-06 15:59:00,
2013-07-06 12:00:00,67.0,65.5,30.14,ESE,115,0.0,0.0,95,0.00,,,0.58,Wunderground v.1.15,2013-07-06 16:00:00,
2013-07-06 12:01:00,67.2,66.0,30.15,ESE,119,0.0,1.0,96,0.00,,,0.58,Wunderground v.1.15,2013-07-06 16:01:00,
2013-07-06 12:02:00,67.0,65.5,30.13,ESE,115,0.0,0.0,95,0.00,,,0.58,Wunderground v.1.15,2013-07-06 16:02:00,
2013-07-06 12:03:00,67.0,65.5,30.13,ESE,115,0.0,0.0,95,0.00,,,0.58,Wunderground v.1.15,2013-07-06 16:03:00,
2013-07-06 12:04:00,67.2,66.0,30.15,SSW,193,0.0,2.0,96,0.00,,,0.58,Wunderground v.1.15,2013-07-06 16:04:00,
2013-07-06 12:05:00,67.0,65.5,30.13,ESE,115,0.0,0.0,95,0.00,,,0.58,Wunderground v.1.15,2013-07-06 16:05:00,
2013-07-06 12:06:00,66.9,65.4,30.13,ESE,115,0.0,0.0,95,0.00,,,0.58,Wunderground v.1.15,2013-07-06 16:06:00,
2013-07-06 12:07:00,67.1,65.9,30.15,SSW,193,0.0,2.0,96,0.00,,,0.58,Wunderground v.1.15,2013-07-06 16:07:00,
2013-07-06 12:09:00,66.9,65.4,30.13,ESE,115,0.0,0.0,95,0.00,,,0.58,Wunderground v.1.15,2013-07-06 16:09:00,
2013-07-06 12:10:00,67.2,66.0,30.15,SSW,193,0.0,1.0,96,0.00,,,0.58,Wunderground v.1.15,2013-07-06 16:10:00,
2013-07-06 12:11:00,66.9,65.4,30.13,ESE,115,0.0,0.0,95,0.00,,,0.58,Wunderground v.1.15,2013-07-06 16:11:00,
2013-07-06 12:13:00,66.8,65.3,30.13,ESE,115,0.0,0.0,95,0.00,,,0.58,Wunderground v.1.15,2013-07-06 16:13:00,
2013-07-06 12:14:00,66.8,65.3,30.13,ESE,115,0.0,0.0,95,0.00,,,0.58,Wunderground v.1.15,2013-07-06 16:14:00,
2013-07-06 12:16:00,67.3,66.1,30.14,SSW,192,0.0,1.0,96,0.00,,,0.58,Wunderground v.1.15,2013-07-06 16:16:00,
2013-07-06 12:17:00,66.7,65.2,30.13,ESE,115,0.0,0.0,95,0.00,,,0.58,Wunderground v.1.15,2013-07-06 16:17:00,
2013-07-06 12:18:00,66.7,65.2,30.13,ESE,115,0.0,0.0,95,0.00,,,0.58,Wunderground v.1.15,2013-07-06 16:18:00,
2013-07-06 12:19:00,66.7,65.2,30.13,ESE,115,0.0,0.0,95,0.00,,,0.58,Wunderground v.1.15,2013-07-06 16:19:00,
2013-07-06 12:21:00,66.7,65.2,30.13,ESE,115,0.0,0.0,95,0.00,,,0.58,Wunderground v.1.15,2013-07-06 16:21:00,
2013-07-06 12:22:00,66.7,65.2,30.13,ESE,115,0.0,0.0,95,0.00,,,0.58,Wunderground v.1.15,2013-07-06 16:22:00,
2013-07-06 12:23:00,66.7,65.2,30.13,ESE,115,0.0,0.0,95,0.00,,,0.58,Wunderground v.1.15,2013-07-06 16:23:00,
2013-07-06 12:24:00,66.6,65.1,30.12,ESE,115,0.0,0.0,95,0.00,,,0.58,Wunderground v.1.15,2013-07-06 16:24:00,
2013-07-06 12:25:00,66.6,65.1,30.12,ESE,115,0.0,0.0,95,0.00,,,0.58,Wunderground v.1.15,2013-07-06 16:25:00,
2013-07-06 12:26:00,66.6,65.1,30.12,ESE,115,0.0,0.0,95,0.00,,,0.58,Wunderground v.1.15,2013-07-06 16:26:00,
2013-07-06 12:28:00,66.5,65.0,30.12,ESE,115,0.0,0.0,95,0.00,,,0.58,Wunderground v.1.15,2013-07-06 16:28:00,
2013-07-06 12:29:00,66.5,65.0,30.12,ESE,115,0.0,0.0,95,0.00,,,0.58,Wunderground v.1.15,2013-07-06 16:29:00,
2013-07-06 12:31:00,67.4,65.9,30.14,SSW,196,0.0,0.0,95,0.00,,,0.58,Wunderground v.1.15,2013-07-06 16:31:00,
2013-07-06 12:33:00,66.4,64.9,30.12,ESE,115,0.0,0.0,95,0.00,,,0.58,Wunderground v.1.15,2013-07-06 16:33:00,
2013-07-06 12:34:00,66.4,64.9,30.12,ESE,115,0.0,0.0,95,0.00,,,0.58,Wunderground v.1.15,2013-07-06 16:34:00,
2013-07-06 12:35:00,66.3,64.8,30.12,ESE,115,0.0,0.0,95,0.00,,,0.58,Wunderground v.1.15,2013-07-06 16:35:00,
2013-07-06 12:36:00,67.5,66.0,30.14,SSW,196,0.0,0.0,95,0.00,,,0.58,Wunderground v.1.15,2013-07-06 16:36:00,
2013-07-06 12:37:00,66.3,64.8,30.12,ESE,115,0.0,0.0,95,0.00,,,0.58,Wunderground v.1.15,2013-07-06 16:37:00,
2013-07-06 12:38:00,66.3,64.8,30.12,ESE,115,0.0,0.0,95,0.00,,,0.58,Wunderground v.1.15,2013-07-06 16:38:00,
2013-07-06 12:39:00,66.3,64.8,30.12,ESE,115,0.0,0.0,95,0.00,,,0.58,Wunderground v.1.15,2013-07-06 16:39:00,
2013-07-06 12:40:00,66.3,64.8,30.12,ESE,115,0.0,0.0,95,0.00,,,0.58,Wunderground v.1.15,2013-07-06 16:40:00,
2013-07-06 12:41:00,66.3,64.8,30.12,ESE,115,0.0,0.0,95,0.00,,,0.58,Wunderground v.1.15,2013-07-06 16:41:00,
2013-07-06 12:42:00,66.2,64.7,30.12,ESE,115,0.0,0.0,95,0.00,,,0.58,Wunderground v.1.15,2013-07-06 16:42:00,
2013-07-06 12:43:00,66.2,64.7,30.12,ESE,115,0.0,0.0,95,0.00,,,0.58,Wunderground v.1.15,2013-07-06 16:43:00,
2013-07-06 12:44:00,66.2,64.7,30.12,ESE,115,0.0,0.0,95,0.00,,,0.58,Wunderground v.1.15,2013-07-06 16:44:00,
2013-07-06 12:45:00,66.2,64.7,30.12,ESE,115,0.0,0.0,95,0.00,,,0.58,Wunderground v.1.15,2013-07-06 16:45:00,
2013-07-06 12:46:00,67.6,66.1,30.14,SSW,196,0.0,0.0,95,0.00,,,0.58,Wunderground v.1.15,2013-07-06 16:46:00,
2013-07-06 12:47:00,66.2,64.7,30.12,ESE,115,0.0,0.0,95,0.00,,,0.58,Wunderground v.1.15,2013-07-06 16:47:00,
2013-07-06 12:48:00,66.1,64.6,30.12,ESE,115,0.0,0.0,95,0.00,,,0.58,Wunderground v.1.15,2013-07-06 16:48:00,
2013-07-06 12:49:00,66.1,64.6,30.12,ESE,115,0.0,0.0,95,0.00,,,0.58,Wunderground v.1.15,2013-07-06 16:49:00,
2013-07-06 12:50:00,66.1,64.6,30.12,ESE,115,0.0,0.0,95,0.00,,,0.58,Wunderground v.1.15,2013-07-06 16:50:00,
2013-07-06 12:52:00,66.1,64.6,30.11,ESE,115,0.0,0.0,95,0.00,,,0.58,Wunderground v.1.15,2013-07-06 16:52:00,
2013-07-06 12:53:00,66.1,64.6,30.12,ESE,115,0.0,0.0,95,0.00,,,0.58,Wunderground v.1.15,2013-07-06 16:53:00,
2013-07-06 12:54:00,66.1,64.6,30.11,ESE,115,0.0,0.0,95,0.00,,,0.58,Wunderground v.1.15,2013-07-06 16:54:00,
2013-07-06 12:56:00,67.8,66.3,30.13,South,182,0.0,0.0,95,0.00,,,0.58,Wunderground v.1.15,2013-07-06 16:56:00,
2013-07-06 12:57:00,66.0,64.5,30.11,ESE,115,0.0,0.0,95,0.00,,,0.58,Wunderground v.1.15,2013-07-06 16:57:00,
2013-07-06 12:58:00,65.9,64.4,30.11,ESE,115,0.0,0.0,95,0.00,,,0.58,Wunderground v.1.15,2013-07-06 16:58:00,
2013-07-06 12:59:00,65.9,64.4,30.11,ESE,115,0.0,0.0,95,0.00,,,0.58,Wunderground v.1.15,2013-07-06 16:59:00,
2013-07-06 13:00:00,65.9,64.4,30.11,ESE,115,0.0,0.0,95,0.00,,,0.58,Wunderground v.1.15,2013-07-06 17:00:00,
2013-07-06 13:01:00,65.9,64.4,30.11,ESE,115,0.0,0.0,95,0.00,,,0.00,Wunderground v.1.15,2013-07-06 17:01:00,
2013-07-06 13:02:00,65.9,64.4,30.11,ESE,115,0.0,0.0,95,0.00,,,0.00,Wunderground v.1.15,2013-07-06 17:02:00,
2013-07-06 13:03:00,65.8,64.3,30.11,ESE,115,0.0,0.0,95,0.00,,,0.00,Wunderground v.1.15,2013-07-06 17:03:00,
2013-07-06 13:04:00,65.9,64.4,30.11,ESE,115,0.0,0.0,95,0.00,,,0.00,Wunderground v.1.15,2013-07-06 17:04:00,
2013-07-06 13:05:00,65.8,64.3,30.11,ESE,115,0.0,0.0,95,0.00,,,0.00,Wunderground v.1.15,2013-07-06 17:05:00,
2013-07-06 13:06:00,65.8,64.3,30.11,ESE,115,0.0,0.0,95,0.00,,,0.00,Wunderground v.1.15,2013-07-06 17:06:00,
2013-07-06 13:07:00,65.8,64.3,30.11,ESE,115,0.0,0.0,95,0.00,,,0.00,Wunderground v.1.15,2013-07-06 17:07:00,
2013-07-06 13:08:00,65.8,64.3,30.11,ESE,115,0.0,0.0,95,0.00,,,0.00,Wunderground v.1.15,2013-07-06 17:08:00,
2013-07-06 13:09:00,65.8,64.3,30.11,ESE,115,0.0,0.0,95,0.00,,,0.00,Wunderground v.1.15,2013-07-06 17:09:00,
2013-07-06 13:10:00,65.9,64.4,30.11,ESE,115,0.0,0.0,95,0.00,,,0.00,Wunderground v.1.15,2013-07-06 17:10:00,
2013-07-06 13:11:00,65.8,64.6,30.11,ESE,115,0.0,0.0,96,0.00,,,0.00,Wunderground v.1.15,2013-07-06 17:11:00,
2013-07-06 13:12:00,65.8,64.3,30.11,ESE,115,0.0,0.0,95,0.00,,,0.00,Wunderground v.1.15,2013-07-06 17:12:00,
2013-07-06 13:13:00,65.8,64.3,30.11,ESE,115,0.0,0.0,95,0.00,,,0.00,Wunderground v.1.15,2013-07-06 17:13:00,
2013-07-06 13:14:00,65.8,64.3,30.11,ESE,115,0.0,0.0,95,0.00,,,0.00,Wunderground v.1.15,2013-07-06 17:14:00,
2013-07-06 13:15:00,65.9,64.4,30.11,ESE,115,0.0,0.0,95,0.00,,,0.00,Wunderground v.1.15,2013-07-06 17:15:00,
2013-07-06 13:16:00,65.9,64.4,30.11,ESE,115,0.0,0.0,95,0.00,,,0.00,Wunderground v.1.15,2013-07-06 17:16:00,
2013-07-06 13:17:00,65.9,64.4,30.11,ESE,115,0.0,0.0,95,0.00,,,0.00,Wunderground v.1.15,2013-07-06 17:17:00,
2013-07-06 13:18:00,65.8,64.6,30.11,ESE,115,0.0,0.0,96,0.00,,,0.00,Wunderground v.1.15,2013-07-06 17:18:00,
2013-07-06 13:19:00,65.8,64.6,30.11,ESE,115,0.0,0.0,96,0.00,,,0.00,Wunderground v.1.15,2013-07-06 17:19:00,
2013-07-06 13:20:00,65.8,64.6,30.11,ESE,115,0.0,0.0,96,0.00,,,0.00,Wunderground v.1.15,2013-07-06 17:20:00,
2013-07-06 13:21:00,65.8,64.6,30.12,ESE,115,0.0,0.0,96,0.00,,,0.00,Wunderground v.1.15,2013-07-06 17:21:00,
2013-07-06 13:22:00,65.8,64.6,30.12,ESE,115,0.0,0.0,96,0.00,,,0.00,Wunderground v.1.15,2013-07-06 17:22:00,
2013-07-06 13:23:00,65.8,64.6,30.12,ESE,115,0.0,0.0,96,0.00,,,0.00,Wunderground v.1.15,2013-07-06 17:23:00,
2013-07-06 13:24:00,65.8,64.6,30.12,ESE,115,0.0,0.0,96,0.00,,,0.00,Wunderground v.1.15,2013-07-06 17:24:00,
2013-07-06 13:25:00,65.7,64.5,30.12,ESE,115,0.0,0.0,96,0.00,,,0.00,Wunderground v.1.15,2013-07-06 17:25:00,
2013-07-06 13:26:00,65.7,64.5,30.12,ESE,115,0.0,0.0,96,0.00,,,0.00,Wunderground v.1.15,2013-07-06 17:26:00,
2013-07-06 13:27:00,65.7,64.5,30.12,ESE,115,0.0,0.0,96,0.00,,,0.00,Wunderground v.1.15,2013-07-06 17:27:00,
2013-07-06 13:28:00,65.7,64.5,30.12,ESE,115,0.0,0.0,96,0.00,,,0.00,Wunderground v.1.15,2013-07-06 17:28:00,
2013-07-06 13:29:00,65.6,64.4,30.12,ESE,115,0.0,0.0,96,0.00,,,0.00,Wunderground v.1.15,2013-07-06 17:29:00,
2013-07-06 13:30:00,65.6,64.4,30.12,ESE,115,0.0,0.0,96,0.00,,,0.00,Wunderground v.1.15,2013-07-06 17:30:00,
2013-07-06 13:31:00,65.6,64.4,30.12,ESE,115,0.0,0.0,96,0.00,,,0.00,Wunderground v.1.15,2013-07-06 17:31:00,
2013-07-06 13:32:00,65.6,64.4,30.12,ESE,115,0.0,0.0,96,0.00,,,0.00,Wunderground v.1.15,2013-07-06 17:32:00,
2013-07-06 13:33:00,65.6,64.4,30.12,ESE,115,0.0,0.0,96,0.00,,,0.00,Wunderground v.1.15,2013-07-06 17:33:00,
2013-07-06 13:34:00,65.6,64.4,30.12,ESE,115,0.0,0.0,96,0.00,,,0.00,Wunderground v.1.15,2013-07-06 17:34:00,
2013-07-06 13:35:00,65.6,64.4,30.11,ESE,115,0.0,0.0,96,0.00,,,0.00,Wunderground v.1.15,2013-07-06 17:35:00,
2013-07-06 13:36:00,65.6,64.4,30.11,ESE,115,0.0,0.0,96,0.00,,,0.00,Wunderground v.1.15,2013-07-06 17:36:00,
2013-07-06 13:37:00,65.6,64.4,30.11,ESE,115,0.0,0.0,96,0.00,,,0.00,Wunderground v.1.15,2013-07-06 17:37:00,
2013-07-06 13:38:00,65.6,64.4,30.11,ESE,115,0.0,0.0,96,0.00,,,0.00,Wunderground v.1.15,2013-07-06 17:38:00,
2013-07-06 13:39:00,65.6,64.4,30.11,ESE,115,0.0,0.0,96,0.00,,,0.00,Wunderground v.1.15,2013-07-06 17:39:00,
2013-07-06 13:40:00,65.7,64.5,30.11,ESE,115,0.0,0.0,96,0.00,,,0.00,Wunderground v.1.15,2013-07-06 17:40:00,
2013-07-06 13:41:00,65.8,64.6,30.11,ESE,115,0.0,0.0,96,0.00,,,0.00,Wunderground v.1.15,2013-07-06 17:41:00,
2013-07-06 13:42:00,65.8,64.6,30.11,ESE,115,0.0,0.0,96,0.00,,,0.00,Wunderground v.1.15,2013-07-06 17:42:00,
2013-07-06 13:43:00,65.8,64.6,30.11,ESE,115,0.0,0.0,96,0.00,,,0.00,Wunderground v.1.15,2013-07-06 17:43:00,
2013-07-06 13:44:00,65.9,64.7,30.11,ESE,115,0.0,0.0,96,0.00,,,0.00,Wunderground v.1.15,2013-07-06 17:44:00,
2013-07-06 13:45:00,65.9,64.7,30.11,ESE,115,0.0,0.0,96,0.00,,,0.00,Wunderground v.1.15,2013-07-06 17:45:00,
2013-07-06 13:46:00,65.9,64.7,30.11,ESE,115,0.0,0.0,96,0.00,,,0.00,Wunderground v.1.15,2013-07-06 17:46:00,
2013-07-06 13:47:00,65.9,64.7,30.11,ESE,115,0.0,0.0,96,0.00,,,0.00,Wunderground v.1.15,2013-07-06 17:47:00,
2013-07-06 13:48:00,66.0,64.8,30.11,ESE,115,0.0,0.0,96,0.00,,,0.00,Wunderground v.1.15,2013-07-06 17:48:00,
2013-07-06 13:49:00,66.0,64.8,30.11,ESE,115,0.0,0.0,96,0.00,,,0.00,Wunderground v.1.15,2013-07-06 17:49:00,
2013-07-06 13:50:00,66.0,64.8,30.11,ESE,115,0.0,0.0,96,0.00,,,0.00,Wunderground v.1.15,2013-07-06 17:50:00,
2013-07-06 13:51:00,66.0,64.8,30.11,ESE,115,0.0,0.0,96,0.00,,,0.00,Wunderground v.1.15,2013-07-06 17:51:00,
2013-07-06 13:52:00,66.0,64.8,30.11,ESE,115,0.0,0.0,96,0.00,,,0.00,Wunderground v.1.15,2013-07-06 17:52:00,
2013-07-06 13:53:00,66.0,64.8,30.11,ESE,115,0.0,0.0,96,0.00,,,0.00,Wunderground v.1.15,2013-07-06 17:53:00,
2013-07-06 13:54:00,66.0,64.8,30.11,ESE,115,0.0,0.0,96,0.00,,,0.00,Wunderground v.1.15,2013-07-06 17:54:00,
2013-07-06 13:55:00,65.9,64.7,30.11,ESE,115,0.0,0.0,96,0.00,,,0.00,Wunderground v.1.15,2013-07-06 17:55:00,
2013-07-06 13:56:00,65.9,64.7,30.11,ESE,115,0.0,0.0,96,0.00,,,0.00,Wunderground v.1.15,2013-07-06 17:56:00,
2013-07-06 13:57:00,65.9,64.7,30.11,ESE,115,0.0,0.0,96,0.00,,,0.00,Wunderground v.1.15,2013-07-06 17:57:00,
2013-07-06 13:58:00,65.9,64.7,30.11,ESE,115,0.0,0.0,96,0.00,,,0.00,Wunderground v.1.15,2013-07-06 17:58:00,
2013-07-06 13:59:00,65.9,64.7,30.11,ESE,115,0.0,0.0,96,0.00,,,0.00,Wunderground v.1.15,2013-07-06 17:59:00,
2013-07-06 14:00:00,65.9,64.7,30.11,ESE,115,0.0,0.0,96,0.00,,,0.00,Wunderground v.1.15,2013-07-06 18:00:00,
2013-07-06 14:01:00,65.9,64.7,30.11,ESE,115,0.0,0.0,96,0.00,,,0.00,Wunderground v.1.15,2013-07-06 18:01:00,
2013-07-06 14:02:00,65.9,64.7,30.11,ESE,115,0.0,0.0,96,0.00,,,0.00,Wunderground v.1.15,2013-07-06 18:02:00,
2013-07-06 14:03:00,65.9,64.7,30.11,ESE,115,0.0,0.0,96,0.00,,,0.00,Wunderground v.1.15,2013-07-06 18:03:00,
2013-07-06 14:04:00,65.9,64.7,30.11,ESE,115,0.0,0.0,96,0.00,,,0.00,Wunderground v.1.15,2013-07-06 18:04:00,
2013-07-06 14:05:00,65.9,64.7,30.11,ESE,115,0.0,0.0,96,0.00,,,0.00,Wunderground v.1.15,2013-07-06 18:05:00,
2013-07-06 14:06:00,66.0,64.8,30.11,ESE,115,0.0,0.0,96,0.00,,,0.00,Wunderground v.1.15,2013-07-06 18:06:00,
2013-07-06 14:07:00,66.0,64.8,30.11,ESE,115,0.0,0.0,96,0.00,,,0.00,Wunderground v.1.15,2013-07-06 18:07:00,
2013-07-06 14:08:00,66.0,64.8,30.11,ESE,115,0.0,0.0,96,0.00,,,0.00,Wunderground v.1.15,2013-07-06 18:08:00,
2013-07-06 14:09:00,66.0,64.8,30.11,ESE,115,0.0,0.0,96,0.00,,,0.00,Wunderground v.1.15,2013-07-06 18:09:00,
2013-07-06 14:10:00,66.0,64.8,30.11,ESE,115,0.0,0.0,96,0.00,,,0.00,Wunderground v.1.15,2013-07-06 18:10:00,
2013-07-06 14:11:00,66.0,64.8,30.11,ESE,115,0.0,0.0,96,0.00,,,0.00,Wunderground v.1.15,2013-07-06 18:11:00,
2013-07-06 14:12:00,66.0,64.8,30.11,ESE,115,0.0,0.0,96,0.00,,,0.00,Wunderground v.1.15,2013-07-06 18:12:00,
2013-07-06 14:13:00,66.0,64.8,30.11,ESE,115,0.0,0.0,96,0.00,,,0.00,Wunderground v.1.15,2013-07-06 18:13:00,
2013-07-06 14:14:00,66.0,64.8,30.11,ESE,115,0.0,0.0,96,0.00,,,0.00,Wunderground v.1.15,2013-07-06 18:14:00,
2013-07-06 14:15:00,66.0,64.8,30.11,ESE,115,0.0,0.0,96,0.00,,,0.00,Wunderground v.1.15,2013-07-06 18:15:00,
2013-07-06 14:16:00,66.0,64.8,30.11,ESE,115,0.0,0.0,96,0.00,,,0.00,Wunderground v.1.15,2013-07-06 18:16:00,
2013-07-06 14:17:00,65.9,64.7,30.11,ESE,115,0.0,0.0,96,0.00,,,0.00,Wunderground v.1.15,2013-07-06 18:17:00,
2013-07-06 14:18:00,65.9,64.7,30.11,ESE,115,0.0,0.0,96,0.00,,,0.00,Wunderground v.1.15,2013-07-06 18:18:00,
2013-07-06 14:19:00,65.9,64.7,30.11,ESE,115,0.0,0.0,96,0.00,,,0.00,Wunderground v.1.15,2013-07-06 18:19:00,
2013-07-06 14:20:00,65.9,64.7,30.11,ESE,115,0.0,0.0,96,0.00,,,0.00,Wunderground v.1.15,2013-07-06 18:20:00,
2013-07-06 14:21:00,65.9,64.7,30.11,ESE,115,0.0,0.0,96,0.00,,,0.00,Wunderground v.1.15,2013-07-06 18:21:00,
2013-07-06 14:22:00,65.9,64.7,30.11,ESE,115,0.0,0.0,96,0.00,,,0.00,Wunderground v.1.15,2013-07-06 18:22:00,
2013-07-06 14:24:00,65.8,64.6,30.11,ESE,115,0.0,0.0,96,0.00,,,0.00,Wunderground v.1.15,2013-07-06 18:24:00,
2013-07-06 14:25:00,65.8,64.6,30.11,ESE,115,0.0,0.0,96,0.00,,,0.00,Wunderground v.1.15,2013-07-06 18:25:00,
2013-07-06 14:26:00,65.8,64.6,30.11,ESE,115,0.0,0.0,96,0.00,,,0.00,Wunderground v.1.15,2013-07-06 18:26:00,
2013-07-06 14:27:00,65.8,64.6,30.11,ESE,115,0.0,0.0,96,0.00,,,0.00,Wunderground v.1.15,2013-07-06 18:27:00,
2013-07-06 14:28:00,65.7,64.5,30.11,ESE,115,0.0,0.0,96,0.00,,,0.00,Wunderground v.1.15,2013-07-06 18:28:00,
2013-07-06 14:30:00,65.7,64.5,30.11,ESE,115,0.0,0.0,96,0.00,,,0.00,Wunderground v.1.15,2013-07-06 18:30:00,
2013-07-06 14:31:00,65.7,64.5,30.11,ESE,115,0.0,0.0,96,0.00,,,0.00,Wunderground v.1.15,2013-07-06 18:31:00,
2013-07-06 14:33:00,65.7,64.5,30.11,ESE,115,0.0,0.0,96,0.00,,,0.00,Wunderground v.1.15,2013-07-06 18:33:00,
2013-07-06 14:35:00,65.7,64.5,30.11,ESE,115,0.0,0.0,96,0.00,,,0.00,Wunderground v.1.15,2013-07-06 18:35:00,
2013-07-06 14:36:00,65.7,64.5,30.11,ESE,115,0.0,0.0,96,0.00,,,0.00,Wunderground v.1.15,2013-07-06 18:36:00,
2013-07-06 14:39:00,65.7,64.5,30.11,ESE,115,0.0,0.0,96,0.00,,,0.00,Wunderground v.1.15,2013-07-06 18:39:00,
2013-07-06 14:40:00,65.7,64.5,30.11,ESE,115,0.0,0.0,96,0.00,,,0.00,Wunderground v.1.15,2013-07-06 18:40:00,
2013-07-06 14:42:00,65.8,64.6,30.11,ESE,115,0.0,0.0,96,0.00,,,0.00,Wunderground v.1.15,2013-07-06 18:42:00,
2013-07-06 14:44:00,65.8,64.6,30.11,ESE,115,0.0,0.0,96,0.00,,,0.00,Wunderground v.1.15,2013-07-06 18:44:00,
2013-07-06 14:45:00,65.8,64.6,30.11,ESE,115,0.0,0.0,96,0.00,,,0.00,Wunderground v.1.15,2013-07-06 18:45:00,
2013-07-06 14:52:00,65.7,64.5,30.11,ESE,115,0.0,0.0,96,0.00,,,0.00,Wunderground v.1.15,2013-07-06 18:52:00,
2013-07-06 14:56:00,65.7,64.5,30.11,ESE,115,0.0,0.0,96,0.00,,,0.00,Wunderground v.1.15,2013-07-06 18:56:00,
2013-07-06 15:00:00,65.7,64.5,30.10,ESE,115,0.0,0.0,96,0.00,,,0.00,Wunderground v.1.15,2013-07-06 19:00:00,
2013-07-06 15:11:00,65.5,64.3,30.09,ESE,115,0.0,0.0,96,0.00,,,0.00,Wunderground v.1.15,2013-07-06 19:11:00,
2013-07-06 15:17:00,65.4,64.2,30.09,ESE,115,0.0,0.0,96,0.00,,,0.00,Wunderground v.1.15,2013-07-06 19:17:00,
2013-07-06 15:26:00,65.2,64.0,30.10,ESE,115,0.0,0.0,96,0.00,,,0.00,Wunderground v.1.15,2013-07-06 19:26:00,
2013-07-06 15:33:00,65.1,63.9,30.09,ESE,115,0.0,0.0,96,0.00,,,0.00,Wunderground v.1.15,2013-07-06 19:33:00,
2013-07-06 15:51:00,64.9,63.7,30.09,ESE,115,0.0,0.0,96,0.00,,,0.00,Wunderground v.1.15,2013-07-06 19:51:00,
2013-07-06 15:52:00,64.8,63.6,30.09,ESE,115,0.0,0.0,96,0.00,,,0.00,Wunderground v.1.15,2013-07-06 19:52:00,
2013-07-06 16:41:00,65.0,63.8,30.09,ESE,115,0.0,0.0,96,0.00,,,0.00,Wunderground v.1.15,2013-07-06 20:41:00,
2013-07-06 16:46:00,65.0,63.8,30.09,ESE,115,0.0,0.0,96,0.00,,,0.00,Wunderground v.1.15,2013-07-06 20:46:00,
2013-07-06 16:47:00,65.0,63.8,30.09,ESE,115,0.0,0.0,96,0.00,,,0.00,Wunderground v.1.15,2013-07-06 20:47:00,
2013-07-06 16:48:00,65.0,63.8,30.09,ESE,115,0.0,0.0,96,0.00,,,0.00,Wunderground v.1.15,2013-07-06 20:48:00,
2013-07-06 16:49:00,65.0,63.8,30.09,ESE,115,0.0,0.0,96,0.00,,,0.00,Wunderground v.1.15,2013-07-06 20:49:00,
2013-07-06 16:53:00,65.1,64.2,30.09,ESE,115,0.0,0.0,97,0.00,,,0.00,Wunderground v.1.15,2013-07-06 20:53:00,
2013-07-06 16:55:00,65.2,64.3,30.09,ESE,115,0.0,0.0,97,0.00,,,0.00,Wunderground v.1.15,2013-07-06 20:55:00,
2013-07-06 17:03:00,65.4,64.5,30.08,ESE,115,0.0,0.0,97,0.00,,,0.00,Wunderground v.1.15,2013-07-06 21:03:00,
2013-07-06 17:12:00,65.5,64.6,30.08,ESE,115,0.0,0.0,97,0.00,,,0.00,Wunderground v.1.15,2013-07-06 21:12:00,
2013-07-06 17:17:00,65.6,64.7,30.08,ESE,115,0.0,0.0,97,0.00,,,0.00,Wunderground v.1.15,2013-07-06 21:17:00,
2013-07-06 17:18:00,65.6,64.7,30.08,ESE,115,0.0,0.0,97,0.00,,,0.00,Wunderground v.1.15,2013-07-06 21:18:00,
2013-07-06 17:36:00,65.7,64.8,30.09,ESE,115,0.0,0.0,97,0.00,,,0.00,Wunderground v.1.15,2013-07-06 21:36:00,
2013-07-06 17:37:00,65.7,64.8,30.08,ESE,115,0.0,0.0,97,0.00,,,0.00,Wunderground v.1.15,2013-07-06 21:37:00,
2013-07-06 17:39:00,65.7,64.8,30.08,ESE,115,0.0,0.0,97,0.00,,,0.00,Wunderground v.1.15,2013-07-06 21:39:00,
2013-07-06 17:41:00,65.7,64.8,30.08,ESE,115,0.0,0.0,97,0.00,,,0.00,Wunderground v.1.15,2013-07-06 21:41:00,
2013-07-06 18:00:00,66.0,65.1,30.09,ESE,115,0.0,0.0,97,0.00,,,0.00,Wunderground v.1.15,2013-07-06 22:00:00,
2013-07-06 18:01:00,65.9,65.0,30.09,ESE,115,0.0,0.0,97,0.00,,,0.00,Wunderground v.1.15,2013-07-06 22:01:00,
2013-07-06 18:07:00,65.9,65.0,30.09,ESE,115,0.0,0.0,97,0.00,,,0.00,Wunderground v.1.15,2013-07-06 22:07:00,
2013-07-06 18:08:00,65.9,65.0,30.09,ESE,115,0.0,0.0,97,0.00,,,0.00,Wunderground v.1.15,2013-07-06 22:08:00,
2013-07-06 18:21:00,65.9,65.0,30.09,ESE,115,0.0,0.0,97,0.00,,,0.00,Wunderground v.1.15,2013-07-06 22:21:00,
2013-07-06 18:25:00,65.9,65.0,30.09,ESE,115,0.0,0.0,97,0.00,,,0.00,Wunderground v.1.15,2013-07-06 22:25:00,
2013-07-06 18:37:00,66.0,65.1,30.09,ESE,115,0.0,0.0,97,0.00,,,0.00,Wunderground v.1.15,2013-07-06 22:37:00,